CAL8 RCTP-KLAX

Flight info

Callsign CAL8
Flight time N/A
Altitude 31000
Route MOLKA1C MOLKA M750 INVAM/N0493F330 M750 MUKEP Y891 OVSUN/N0490F320 Y893 IGMIS/N0490F330 Y57 POROT Y809 IDLAN Y812 ADNAP R591 ADGOR DCT CUTEE/N0481F350 DCT 48N170E 46N180E 43N170W 41N160W 40N150W/N0479F370 40N145W 40N140W DCT COBAD DCT CEPAS DCT PIRAT DCT BURGL IRNMN2
Aircraft B77W/H-SDE1E2E3FGHIJ2J3J4J5M1RWXY/LB1D1

Departure

Time 2026-05-07 21:34
Airport Taiwan Taoyuan International Airport (RCTP)

Arrival

Time N/A
Airport Los Angeles International Airport (KLAX)
Time Latitude Longitude Altitude Speed Heading
2026-05-07 21:10 25.08256 121.23534 106 ft 0 kts 139°
2026-05-07 21:20 25.08257 121.23533 106 ft 1 kts 139°
2026-05-07 21:21 25.08269 121.23522 105 ft 3 kts 139°
2026-05-07 21:21 25.08284 121.23508 106 ft 3 kts 139°
2026-05-07 21:21 25.08300 121.23493 105 ft 3 kts 139°
2026-05-07 21:21 25.08308 121.23485 104 ft 3 kts 139°
2026-05-07 21:22 25.08322 121.23471 106 ft 3 kts 139°
2026-05-07 21:22 25.08335 121.23458 103 ft 1 kts 139°
2026-05-07 21:22 25.08344 121.23450 105 ft 3 kts 147°
2026-05-07 21:22 25.08357 121.23442 104 ft 3 kts 176°
2026-05-07 21:23 25.08363 121.23441 105 ft 3 kts 216°
2026-05-07 21:23 25.08370 121.23450 103 ft 3 kts 244°
2026-05-07 21:23 25.08379 121.23470 104 ft 3 kts 241°
2026-05-07 21:23 25.08388 121.23486 104 ft 1 kts 230°
2026-05-07 21:24 25.08389 121.23488 104 ft 0 kts 229°
2026-05-07 21:27 25.08378 121.23474 103 ft 7 kts 229°
2026-05-07 21:28 25.08326 121.23408 107 ft 16 kts 229°
2026-05-07 21:28 25.08244 121.23302 108 ft 19 kts 229°
2026-05-07 21:28 25.08160 121.23194 108 ft 18 kts 229°
2026-05-07 21:28 25.08077 121.23089 108 ft 18 kts 229°
2026-05-07 21:29 25.07996 121.22983 108 ft 18 kts 229°
2026-05-07 21:29 25.07913 121.22878 108 ft 18 kts 229°
2026-05-07 21:29 25.07830 121.22773 109 ft 18 kts 229°
2026-05-07 21:29 25.07747 121.22668 108 ft 18 kts 229°
2026-05-07 21:30 25.07665 121.22563 108 ft 18 kts 229°
2026-05-07 21:30 25.07595 121.22472 108 ft 11 kts 234°
2026-05-07 21:30 25.07600 121.22397 107 ft 11 kts 303°
2026-05-07 21:30 25.07603 121.22321 106 ft 11 kts 244°
2026-05-07 21:31 25.07556 121.22259 107 ft 11 kts 228°
2026-05-07 21:31 25.07507 121.22197 108 ft 11 kts 229°
2026-05-07 21:31 25.07441 121.22113 106 ft 17 kts 229°
2026-05-07 21:31 25.07362 121.22012 108 ft 17 kts 229°
2026-05-07 21:32 25.07283 121.21911 108 ft 17 kts 229°
2026-05-07 21:32 25.07209 121.21818 107 ft 12 kts 229°
2026-05-07 21:32 25.07181 121.21752 107 ft 9 kts 277°
2026-05-07 21:32 25.07221 121.21695 106 ft 9 kts 316°
2026-05-07 21:33 25.07270 121.21648 107 ft 9 kts 320°
2026-05-07 21:33 25.07323 121.21648 106 ft 7 kts 35°
2026-05-07 21:33 25.07356 121.21683 107 ft 5 kts 46°
2026-05-07 21:33 25.07408 121.21744 107 ft 38 kts 47°
2026-05-07 21:34 25.07756 121.22191 107 ft 113 kts 49°
2026-05-07 21:34 25.08425 121.23042 105 ft 177 kts 49°
2026-05-07 21:34 25.09303 121.24151 453 ft 194 kts 48°
2026-05-07 21:34 25.10209 121.25288 1025 ft 201 kts 47°
2026-05-07 21:35 25.11126 121.26445 1672 ft 201 kts 48°
2026-05-07 21:35 25.12065 121.27652 1867 ft 218 kts 48°
2026-05-07 21:35 25.13082 121.28960 2052 ft 233 kts 49°
2026-05-07 21:35 25.14166 121.30370 2310 ft 247 kts 49°
2026-05-07 21:36 25.15306 121.31854 2587 ft 260 kts 49°
2026-05-07 21:36 25.16487 121.33391 3049 ft 266 kts 49°
2026-05-07 21:36 25.17685 121.34952 3596 ft 268 kts 49°
2026-05-07 21:36 25.18897 121.36530 4138 ft 270 kts 49°
2026-05-07 21:37 25.20129 121.38133 4594 ft 278 kts 50°
2026-05-07 21:37 25.21397 121.39783 5036 ft 284 kts 49°
2026-05-07 21:37 25.22688 121.41464 5525 ft 289 kts 49°
2026-05-07 21:37 25.23993 121.43163 6060 ft 292 kts 49°
2026-05-07 21:38 25.25313 121.44881 6555 ft 295 kts 49°
2026-05-07 21:38 25.26648 121.46620 7061 ft 297 kts 49°
2026-05-07 21:38 25.27986 121.48368 7541 ft 299 kts 51°
2026-05-07 21:38 25.28953 121.50361 7830 ft 304 kts 80°
2026-05-07 21:39 25.28931 121.52669 8224 ft 300 kts 103°
2026-05-07 21:39 25.28707 121.54959 8550 ft 305 kts 83°
2026-05-07 21:39 25.29217 121.57248 8888 ft 309 kts 72°
2026-05-07 21:39 25.29886 121.59513 9380 ft 310 kts 72°
2026-05-07 21:40 25.30506 121.61795 9773 ft 313 kts 76°
2026-05-07 21:40 25.31023 121.64149 10157 ft 318 kts 78°
2026-05-07 21:40 25.31505 121.66602 10281 ft 335 kts 78°
2026-05-07 21:40 25.31996 121.69185 10421 ft 352 kts 78°
2026-05-07 21:41 25.32509 121.71894 10553 ft 369 kts 78°
2026-05-07 21:41 25.33051 121.74734 10688 ft 386 kts 78°
2026-05-07 21:41 25.33618 121.77685 10991 ft 397 kts 78°
2026-05-07 21:41 25.34199 121.80698 11423 ft 405 kts 78°
2026-05-07 21:42 25.34790 121.83753 11983 ft 409 kts 78°
2026-05-07 21:42 25.35386 121.86834 12660 ft 411 kts 78°
2026-05-07 21:42 25.35985 121.89940 13265 ft 416 kts 78°
2026-05-07 21:42 25.36592 121.93085 13823 ft 421 kts 78°
2026-05-07 21:43 25.37207 121.96270 14349 ft 425 kts 78°
2026-05-07 21:43 25.37825 121.99472 14889 ft 428 kts 77°
2026-05-07 21:43 25.38447 122.02702 15440 ft 431 kts 77°
2026-05-07 21:43 25.39074 122.05954 15959 ft 434 kts 77°
2026-05-07 21:44 25.39705 122.09237 16471 ft 438 kts 77°
2026-05-07 21:44 25.40341 122.12550 16979 ft 442 kts 77°
2026-05-07 21:44 25.40981 122.15887 17493 ft 445 kts 78°
2026-05-07 21:44 25.41625 122.19249 18004 ft 449 kts 78°
2026-05-07 21:45 25.42329 122.22625 18441 ft 452 kts 75°
2026-05-07 21:45 25.43215 122.25978 18887 ft 456 kts 71°
2026-05-07 21:45 25.44258 122.29299 19296 ft 459 kts 69°
2026-05-07 21:45 25.45418 122.32596 19699 ft 461 kts 67°
2026-05-07 21:46 25.46664 122.35882 20101 ft 465 kts 66°
2026-05-07 21:46 25.47933 122.39189 20515 ft 468 kts 66°
2026-05-07 21:46 25.49178 122.42535 20927 ft 472 kts 67°
2026-05-07 21:46 25.50386 122.45928 21338 ft 475 kts 68°
2026-05-07 21:47 25.51561 122.49354 21728 ft 478 kts 69°
2026-05-07 21:47 25.52719 122.52823 22114 ft 482 kts 69°
2026-05-07 21:47 25.53870 122.56314 22504 ft 485 kts 69°
2026-05-07 21:47 25.55028 122.59832 22909 ft 488 kts 69°
2026-05-07 21:48 25.56195 122.63369 23287 ft 490 kts 69°
2026-05-07 21:48 25.57377 122.66930 23629 ft 493 kts 69°
2026-05-07 21:48 25.58566 122.70505 23943 ft 496 kts 69°
2026-05-07 21:48 25.59762 122.74094 24268 ft 498 kts 69°
2026-05-07 21:49 25.60960 122.77695 24587 ft 500 kts 69°
2026-05-07 21:49 25.62164 122.81318 24898 ft 502 kts 69°
2026-05-07 21:49 25.63372 122.84959 25201 ft 504 kts 69°
2026-05-07 21:49 25.64583 122.88609 25500 ft 506 kts 69°
2026-05-07 21:50 25.65812 122.92275 25810 ft 509 kts 69°
2026-05-07 21:50 25.67056 122.95958 26085 ft 511 kts 68°
2026-05-07 21:50 25.68306 122.99650 26357 ft 513 kts 68°
2026-05-07 21:50 25.69563 123.03364 26657 ft 515 kts 68°
2026-05-07 21:51 25.70824 123.07099 26930 ft 518 kts 68°
2026-05-07 21:51 25.72068 123.10792 27200 ft 520 kts 69°
2026-05-07 21:51 25.73334 123.14564 27469 ft 522 kts 69°
2026-05-07 21:51 25.74602 123.18345 27733 ft 524 kts 69°
2026-05-07 21:52 25.75873 123.22144 27999 ft 526 kts 69°
2026-05-07 21:52 25.77149 123.25960 28247 ft 529 kts 69°
2026-05-07 21:52 25.78429 123.29790 28484 ft 531 kts 69°
2026-05-07 21:52 25.79714 123.33639 28708 ft 533 kts 69°
2026-05-07 21:53 25.81003 123.37504 28945 ft 535 kts 69°
2026-05-07 21:53 25.82293 123.41375 29180 ft 536 kts 69°
2026-05-07 21:53 25.83586 123.45258 29482 ft 536 kts 69°
2026-05-07 21:53 25.84875 123.49135 29816 ft 535 kts 69°
2026-05-07 21:54 25.86162 123.53005 30141 ft 533 kts 68°
2026-05-07 21:54 25.87705 123.56716 30200 ft 530 kts 54°
2026-05-07 21:54 25.90107 123.59786 30276 ft 526 kts 37°
2026-05-07 21:54 25.93113 123.62035 30512 ft 518 kts 21°
2026-05-07 21:55 25.96389 123.63612 30759 ft 509 kts 18°
2026-05-07 21:55 25.99669 123.65050 30802 ft 506 kts 18°
2026-05-07 21:55 26.06084 123.68200 30933 ft 506 kts 22°
2026-05-07 21:56 26.12427 123.71747 30980 ft 514 kts 23°
2026-05-07 21:56 26.18881 123.75271 30980 ft 517 kts 22°
2026-05-07 21:57 26.25392 123.78695 30983 ft 518 kts 21°
2026-05-07 21:57 26.31879 123.82072 30982 ft 518 kts 21°
2026-05-07 21:58 26.38395 123.85484 30978 ft 517 kts 21°
2026-05-07 21:58 26.44894 123.88908 30983 ft 516 kts 21°
2026-05-07 21:59 26.51384 123.92332 30985 ft 515 kts 21°
2026-05-07 21:59 26.57859 123.95749 30988 ft 515 kts 21°
2026-05-07 22:00 26.64322 123.99193 30977 ft 512 kts 24°
2026-05-07 22:00 26.67244 124.01483 30978 ft 521 kts 43°
2026-05-07 22:00 26.69564 124.04610 31020 ft 524 kts 51°
2026-05-07 22:01 26.73828 124.11187 30993 ft 518 kts 50°
2026-05-07 22:01 26.78512 124.17327 31000 ft 523 kts 45°
2026-05-07 22:02 26.83397 124.23459 31006 ft 532 kts 46°
2026-05-07 22:02 26.88169 124.29807 30998 ft 533 kts 48°
2026-05-07 22:03 26.92873 124.36239 30996 ft 534 kts 48°
2026-05-07 22:03 26.97606 124.42648 30994 ft 533 kts 47°
2026-05-07 22:04 27.02343 124.49024 30993 ft 532 kts 47°
2026-05-07 22:04 27.07076 124.55398 30996 ft 531 kts 47°
2026-05-07 22:05 27.11801 124.61777 30992 ft 531 kts 47°
2026-05-07 22:05 27.16522 124.68165 30999 ft 531 kts 47°
2026-05-07 22:06 27.21208 124.74514 30998 ft 531 kts 47°
2026-05-07 22:06 27.25922 124.80910 31003 ft 532 kts 47°
2026-05-07 22:07 27.30636 124.87316 31003 ft 532 kts 47°
2026-05-07 22:07 27.35353 124.93736 31011 ft 533 kts 47°
2026-05-07 22:08 27.40087 125.00186 30995 ft 535 kts 47°
2026-05-07 22:08 27.44831 125.06610 31000 ft 533 kts 47°
2026-05-07 22:09 27.49587 125.13013 31002 ft 531 kts 47°
2026-05-07 22:09 27.54322 125.19399 31003 ft 530 kts 47°
2026-05-07 22:10 27.59035 125.25777 31002 ft 529 kts 47°
2026-05-07 22:10 27.63738 125.32157 31008 ft 529 kts 47°
2026-05-07 22:11 27.68433 125.38536 31001 ft 529 kts 47°
2026-05-07 22:11 27.72341 125.43851 31030 ft 530 kts 47°
2026-05-07 22:12 27.77058 125.50273 31006 ft 533 kts 47°
2026-05-07 22:12 27.81787 125.56723 30992 ft 532 kts 47°
2026-05-07 22:13 27.86491 125.63154 30999 ft 530 kts 47°
2026-05-07 22:13 27.91181 125.69571 31001 ft 529 kts 47°
2026-05-07 22:14 27.95860 125.75981 31007 ft 528 kts 47°
2026-05-07 22:14 28.00538 125.82397 31010 ft 528 kts 47°
2026-05-07 22:15 28.05214 125.88822 31008 ft 529 kts 47°
2026-05-07 22:15 28.09902 125.95274 31023 ft 532 kts 48°
2026-05-07 22:16 28.14567 126.01705 31019 ft 532 kts 48°
2026-05-07 22:16 28.19262 126.08189 31014 ft 532 kts 48°
2026-05-07 22:17 28.23950 126.14673 31016 ft 531 kts 48°
2026-05-07 22:17 28.28633 126.21159 31013 ft 531 kts 48°
2026-05-07 22:18 28.35650 126.30895 31015 ft 531 kts 48°
2026-05-07 22:19 28.40320 126.37387 31015 ft 531 kts 48°
2026-05-07 22:19 28.44989 126.43887 31014 ft 531 kts 47°
2026-05-07 22:20 28.49653 126.50391 31017 ft 531 kts 47°
2026-05-07 22:20 28.54324 126.56913 31009 ft 532 kts 47°
2026-05-07 22:21 28.58993 126.63446 31011 ft 532 kts 47°
2026-05-07 22:21 28.63664 126.69990 31017 ft 533 kts 47°
2026-05-07 22:22 28.68333 126.76541 31009 ft 533 kts 47°
2026-05-07 22:22 28.73007 126.83109 31023 ft 534 kts 47°
2026-05-07 22:23 28.77680 126.89685 31022 ft 534 kts 47°
2026-05-07 22:23 28.82349 126.96268 31018 ft 534 kts 47°
2026-05-07 22:24 28.87014 127.02855 31025 ft 534 kts 47°
2026-05-07 22:24 28.91669 127.09440 31028 ft 533 kts 47°
2026-05-07 22:25 28.96315 127.16023 31025 ft 532 kts 47°
2026-05-07 22:25 29.00948 127.22596 31025 ft 531 kts 47°
2026-05-07 22:26 29.05569 127.29161 31024 ft 529 kts 47°
2026-05-07 22:26 29.10173 127.35713 31021 ft 528 kts 47°
2026-05-07 22:27 29.14764 127.42256 31026 ft 527 kts 47°
2026-05-07 22:27 29.19342 127.48793 31024 ft 526 kts 47°
2026-05-07 22:28 29.23913 127.55329 31026 ft 525 kts 47°
2026-05-07 22:28 29.28477 127.61865 31023 ft 525 kts 47°
2026-05-07 22:29 29.33036 127.68406 31023 ft 525 kts 47°
2026-05-07 22:29 29.37594 127.74957 31022 ft 526 kts 47°
2026-05-07 22:30 29.42153 127.81518 31026 ft 526 kts 47°
2026-05-07 22:30 29.46707 127.88084 31024 ft 526 kts 47°
2026-05-07 22:31 29.51225 127.94609 31022 ft 526 kts 47°
2026-05-07 22:31 29.55776 128.01186 31022 ft 526 kts 47°
2026-05-07 22:32 29.60323 128.07757 31024 ft 525 kts 47°
2026-05-07 22:32 29.64865 128.14332 31015 ft 525 kts 47°
2026-05-07 22:33 29.69397 128.20906 31026 ft 524 kts 47°
2026-05-07 22:33 29.73924 128.27485 31024 ft 524 kts 48°
2026-05-07 22:34 29.78446 128.34066 31022 ft 524 kts 48°
2026-05-07 22:34 29.82961 128.40648 31017 ft 524 kts 48°
2026-05-07 22:35 29.87473 128.47237 31030 ft 523 kts 48°
2026-05-07 22:35 29.91977 128.53826 31024 ft 524 kts 48°
2026-05-07 22:36 29.96481 128.60424 31019 ft 524 kts 48°
2026-05-07 22:36 30.00983 128.67031 31056 ft 525 kts 47°
2026-05-07 22:37 30.05550 128.73745 31036 ft 537 kts 47°
2026-05-07 22:37 30.10172 128.80545 31026 ft 544 kts 47°
2026-05-07 22:38 30.14834 128.87426 31016 ft 543 kts 47°
2026-05-07 22:38 30.19482 128.94296 31018 ft 542 kts 47°
2026-05-07 22:39 30.24120 129.01159 31017 ft 542 kts 47°
2026-05-07 22:39 30.28757 129.08029 31017 ft 541 kts 47°
2026-05-07 22:40 30.33383 129.14894 31013 ft 541 kts 47°
2026-05-07 22:40 30.38007 129.21770 31015 ft 541 kts 47°
2026-05-07 22:41 30.42630 129.28659 31012 ft 542 kts 47°
2026-05-07 22:41 30.47253 129.35558 31015 ft 542 kts 48°
2026-05-07 22:42 30.51874 129.42467 31014 ft 542 kts 48°
2026-05-07 22:42 30.56494 129.49387 31012 ft 543 kts 48°
2026-05-07 22:43 30.61114 129.56318 31015 ft 543 kts 48°
2026-05-07 22:43 30.65730 129.63257 31010 ft 543 kts 48°
2026-05-07 22:44 30.70344 129.70204 31009 ft 543 kts 48°
2026-05-07 22:44 30.74956 129.77161 31010 ft 543 kts 48°
2026-05-07 22:45 30.79562 129.84122 31006 ft 543 kts 48°
2026-05-07 22:45 30.84160 129.91092 31009 ft 543 kts 49°
2026-05-07 22:46 30.88455 129.98356 31000 ft 546 kts 54°
2026-05-07 22:46 30.92366 130.05956 31011 ft 547 kts 56°
2026-05-07 22:47 30.96224 130.13596 31003 ft 547 kts 55°
2026-05-07 22:47 31.00170 130.21177 31001 ft 547 kts 54°
2026-05-07 22:48 31.04149 130.28672 30998 ft 547 kts 54°
2026-05-07 22:48 31.08149 130.36200 31000 ft 546 kts 54°
2026-05-07 22:49 31.12160 130.43798 30997 ft 546 kts 54°
2026-05-07 22:49 31.16099 130.51297 30995 ft 545 kts 54°
2026-05-07 22:50 31.20054 130.58845 31013 ft 544 kts 54°
2026-05-07 22:50 31.24002 130.66386 31002 ft 544 kts 54°
2026-05-07 22:51 31.27944 130.73928 31000 ft 543 kts 54°
2026-05-07 22:51 31.31882 130.81476 30992 ft 543 kts 54°
2026-05-07 22:52 31.35807 130.89017 30989 ft 543 kts 54°
2026-05-07 22:52 31.39726 130.96562 30971 ft 542 kts 54°
2026-05-07 22:53 31.43640 131.04110 30977 ft 542 kts 54°
2026-05-07 22:53 31.47551 131.11669 31003 ft 542 kts 54°
2026-05-07 22:54 31.51469 131.19253 30967 ft 546 kts 54°
2026-05-07 22:54 31.55394 131.26870 30971 ft 545 kts 55°
2026-05-07 22:55 31.59300 131.34468 30957 ft 543 kts 55°
2026-05-07 22:55 31.63198 131.42059 30957 ft 544 kts 55°
2026-05-07 22:56 31.67093 131.49667 30941 ft 544 kts 55°
2026-05-07 22:56 31.70982 131.57288 30936 ft 545 kts 55°
2026-05-07 22:57 31.74871 131.64925 30929 ft 545 kts 55°
2026-05-07 22:57 31.78761 131.72578 30933 ft 545 kts 55°
2026-05-07 22:58 31.82645 131.80230 30941 ft 545 kts 55°
2026-05-07 22:58 31.86530 131.87901 30952 ft 546 kts 55°
2026-05-07 22:59 31.89755 131.94280 30951 ft 546 kts 56°
2026-05-07 22:59 31.93639 132.01977 30946 ft 548 kts 56°
2026-05-07 23:00 31.98163 132.10966 30942 ft 549 kts 56°
2026-05-07 23:00 32.01419 132.17447 30938 ft 550 kts 56°
2026-05-07 23:01 32.05288 132.25165 30938 ft 550 kts 56°
2026-05-07 23:01 32.09174 132.32934 30937 ft 550 kts 56°
2026-05-07 23:02 32.13023 132.40726 30906 ft 546 kts 59°
2026-05-07 23:02 32.16480 132.48729 30937 ft 549 kts 62°
2026-05-07 23:03 32.19842 132.56851 30930 ft 551 kts 62°
2026-05-07 23:03 32.23244 132.64981 30929 ft 552 kts 62°
2026-05-07 23:04 32.26678 132.73103 30916 ft 553 kts 62°
2026-05-07 23:04 32.30107 132.81217 30914 ft 551 kts 62°
2026-05-07 23:05 32.33521 132.89332 30925 ft 550 kts 62°
2026-05-07 23:05 32.36910 132.97424 30918 ft 548 kts 62°
2026-05-07 23:06 32.40272 133.05468 30922 ft 531 kts 62°
2026-05-07 23:06 32.41876 133.09312 30897 ft 513 kts 62°
2026-05-07 23:06 32.43426 133.13031 30908 ft 495 kts 62°
2026-05-07 23:06 32.44925 133.16638 30897 ft 481 kts 62°
2026-05-07 23:07 32.46398 133.20180 30900 ft 479 kts 62°
2026-05-07 23:07 32.49380 133.27346 30931 ft 491 kts 62°
2026-05-07 23:08 32.52422 133.34673 30925 ft 500 kts 62°
2026-05-07 23:08 32.55461 133.42021 30913 ft 499 kts 62°
2026-05-07 23:09 32.58525 133.49410 30911 ft 499 kts 62°
2026-05-07 23:09 32.61607 133.56785 30904 ft 499 kts 62°
2026-05-07 23:10 32.64675 133.64170 30906 ft 499 kts 63°
2026-05-07 23:10 32.67705 133.71585 30905 ft 499 kts 63°
2026-05-07 23:11 32.70725 133.79016 30896 ft 500 kts 63°
2026-05-07 23:11 32.73751 133.86455 30906 ft 501 kts 63°
2026-05-07 23:12 32.76782 133.93916 30897 ft 502 kts 63°
2026-05-07 23:12 32.79814 134.01397 30902 ft 503 kts 63°
2026-05-07 23:13 32.82729 134.08916 30882 ft 495 kts 68°
2026-05-07 23:13 32.84814 134.16784 30907 ft 505 kts 74°
2026-05-07 23:14 32.86649 134.24913 30896 ft 511 kts 74°
2026-05-07 23:14 32.88590 134.33050 30902 ft 512 kts 73°
2026-05-07 23:15 32.90608 134.41117 30889 ft 512 kts 73°
2026-05-07 23:15 32.92644 134.49241 30892 ft 512 kts 73°
2026-05-07 23:16 32.94656 134.57380 30893 ft 513 kts 73°
2026-05-07 23:16 32.96661 134.65553 30898 ft 514 kts 74°
2026-05-07 23:17 32.98667 134.73741 30891 ft 516 kts 74°
2026-05-07 23:17 33.00521 134.81997 30858 ft 511 kts 79°
2026-05-07 23:18 33.01471 134.90377 30898 ft 516 kts 85°
2026-05-07 23:18 33.02179 134.98960 30906 ft 524 kts 85°
2026-05-07 23:19 33.03092 135.07680 30938 ft 538 kts 84°
2026-05-07 23:19 33.04102 135.16617 30903 ft 549 kts 84°
2026-05-07 23:20 33.05073 135.25686 30894 ft 551 kts 84°
2026-05-07 23:20 33.06020 135.34737 30894 ft 550 kts 84°
2026-05-07 23:21 33.06965 135.43782 30891 ft 549 kts 84°
2026-05-07 23:21 33.07902 135.52757 30890 ft 549 kts 84°
2026-05-07 23:22 33.08839 135.61791 30894 ft 548 kts 84°
2026-05-07 23:22 33.09764 135.70812 30901 ft 549 kts 84°
2026-05-07 23:23 33.10681 135.79847 30895 ft 549 kts 84°
2026-05-07 23:23 33.11592 135.88879 30892 ft 549 kts 85°
2026-05-07 23:24 33.12499 135.97928 30900 ft 549 kts 85°
2026-05-07 23:24 33.13399 136.06978 30888 ft 550 kts 85°
2026-05-07 23:25 33.14293 136.16039 30900 ft 550 kts 85°
2026-05-07 23:25 33.15180 136.25092 30892 ft 550 kts 84°
2026-05-07 23:26 33.16061 136.34153 30901 ft 549 kts 85°
2026-05-07 23:26 33.16935 136.43212 30899 ft 549 kts 85°
2026-05-07 23:27 33.18237 136.56796 30900 ft 549 kts 85°
2026-05-07 23:27 33.19103 136.65850 30903 ft 549 kts 85°
2026-05-07 23:28 33.19963 136.74902 30900 ft 548 kts 85°
2026-05-07 23:28 33.20814 136.83940 30902 ft 548 kts 85°
2026-05-07 23:29 33.21658 136.92987 30902 ft 548 kts 85°
2026-05-07 23:29 33.22490 137.01961 30900 ft 547 kts 85°
2026-05-07 23:30 33.23434 137.10972 30898 ft 547 kts 81°
2026-05-07 23:30 33.25100 137.19825 30875 ft 542 kts 74°
2026-05-07 23:31 33.27433 137.28337 30911 ft 543 kts 70°
2026-05-07 23:31 33.29978 137.36925 30913 ft 552 kts 71°
2026-05-07 23:32 33.32274 137.45681 30899 ft 551 kts 73°
2026-05-07 23:32 33.34392 137.54487 30895 ft 550 kts 74°
2026-05-07 23:33 33.36508 137.63277 30901 ft 549 kts 73°
2026-05-07 23:33 33.38663 137.72043 30901 ft 548 kts 73°
2026-05-07 23:34 33.40815 137.80786 30900 ft 547 kts 73°
2026-05-07 23:34 33.43040 137.89463 30883 ft 540 kts 70°
2026-05-07 23:35 33.46224 137.97492 30899 ft 535 kts 54°
2026-05-07 23:35 33.50615 138.04707 30895 ft 534 kts 54°
2026-05-07 23:36 33.54416 138.12406 30912 ft 542 kts 59°
2026-05-07 23:36 33.58244 138.20276 30908 ft 547 kts 58°
2026-05-07 23:37 33.62225 138.28047 30896 ft 547 kts 57°
2026-05-07 23:37 33.66234 138.35800 30891 ft 546 kts 57°
2026-05-07 23:38 33.70195 138.43574 30893 ft 546 kts 57°
2026-05-07 23:38 33.74135 138.51357 30899 ft 545 kts 57°
2026-05-07 23:39 33.78079 138.59141 30899 ft 545 kts 57°
2026-05-07 23:39 33.81990 138.66868 30896 ft 544 kts 57°
2026-05-07 23:40 33.85933 138.74680 31108 ft 548 kts 57°
2026-05-07 23:40 33.87898 138.78581 31533 ft 544 kts 57°
2026-05-07 23:40 33.89854 138.82469 31955 ft 541 kts 58°
2026-05-07 23:41 33.91800 138.86343 32285 ft 540 kts 58°
2026-05-07 23:41 33.93744 138.90216 32559 ft 541 kts 58°
2026-05-07 23:41 33.95686 138.94087 32822 ft 540 kts 58°
2026-05-07 23:41 33.97633 138.97973 32857 ft 543 kts 58°
2026-05-07 23:42 34.01521 139.05747 32881 ft 540 kts 58°
2026-05-07 23:42 34.05378 139.13478 32882 ft 537 kts 58°
2026-05-07 23:43 34.09215 139.21187 32899 ft 535 kts 58°
2026-05-07 23:43 34.13043 139.28888 32879 ft 535 kts 58°
2026-05-07 23:44 34.16869 139.36594 32892 ft 535 kts 58°
2026-05-07 23:44 34.20696 139.44319 32890 ft 536 kts 58°
2026-05-07 23:45 34.24526 139.52066 32893 ft 538 kts 58°
2026-05-07 23:45 34.28360 139.59842 32892 ft 539 kts 58°
2026-05-07 23:46 34.32164 139.67573 32893 ft 539 kts 58°
2026-05-07 23:46 34.35995 139.75378 32890 ft 539 kts 58°
2026-05-07 23:47 34.39818 139.83184 32886 ft 539 kts 58°
2026-05-07 23:47 34.43632 139.90988 32880 ft 538 kts 59°
2026-05-07 23:48 34.47437 139.98791 32876 ft 538 kts 59°
2026-05-07 23:48 34.51233 140.06591 32873 ft 537 kts 59°
2026-05-07 23:49 34.55020 140.14392 32872 ft 537 kts 59°
2026-05-07 23:49 34.58163 140.20880 32869 ft 536 kts 59°
2026-05-07 23:50 34.61940 140.28691 32870 ft 536 kts 59°
2026-05-07 23:50 34.65707 140.36500 32869 ft 536 kts 59°
2026-05-07 23:51 34.69468 140.44312 32874 ft 536 kts 59°
2026-05-07 23:51 34.73168 140.52171 32872 ft 535 kts 60°
2026-05-07 23:52 34.76787 140.60084 32873 ft 535 kts 60°
2026-05-07 23:52 34.80390 140.68004 32872 ft 535 kts 60°
2026-05-07 23:53 34.84002 140.75913 32871 ft 534 kts 60°
2026-05-07 23:53 34.87613 140.83805 32870 ft 534 kts 60°
2026-05-07 23:54 34.91221 140.91706 32872 ft 533 kts 60°
2026-05-07 23:54 34.94813 140.99596 32864 ft 532 kts 60°
2026-05-07 23:55 34.98394 141.07482 32866 ft 531 kts 60°
2026-05-07 23:55 35.01963 141.15363 32863 ft 530 kts 60°
2026-05-07 23:56 35.05499 141.23186 32867 ft 530 kts 60°
2026-05-07 23:56 35.09048 141.31057 32865 ft 529 kts 60°
2026-05-07 23:57 35.12592 141.38934 32868 ft 529 kts 60°
2026-05-07 23:57 35.16125 141.46805 32865 ft 528 kts 60°
2026-05-07 23:58 35.19652 141.54679 32869 ft 528 kts 60°
2026-05-07 23:58 35.23173 141.62560 32865 ft 528 kts 61°
2026-05-07 23:59 35.26692 141.70456 32865 ft 528 kts 61°
2026-05-07 23:59 35.30201 141.78348 32869 ft 528 kts 61°
2026-05-08 00:00 35.33705 141.86245 32868 ft 528 kts 61°
2026-05-08 00:00 35.37205 141.94152 32864 ft 528 kts 61°
2026-05-08 00:01 35.40701 142.02068 32871 ft 528 kts 61°
2026-05-08 00:01 35.44189 142.09986 32874 ft 528 kts 61°
2026-05-08 00:02 35.47674 142.17917 32864 ft 528 kts 62°
2026-05-08 00:02 35.51157 142.25857 32872 ft 528 kts 62°
2026-05-08 00:03 35.54636 142.33809 32872 ft 529 kts 62°
2026-05-08 00:03 35.58109 142.41768 32867 ft 529 kts 62°
2026-05-08 00:04 35.61555 142.49683 32871 ft 529 kts 62°
2026-05-08 00:04 35.65020 142.57661 32870 ft 529 kts 62°
2026-05-08 00:05 35.68481 142.65649 32868 ft 529 kts 63°
2026-05-08 00:05 35.71940 142.73650 32868 ft 530 kts 63°
2026-05-08 00:06 35.75395 142.81663 32871 ft 530 kts 63°
2026-05-08 00:06 35.78843 142.89680 32872 ft 530 kts 63°
2026-05-08 00:07 35.82288 142.97708 32873 ft 530 kts 63°
2026-05-08 00:07 35.85726 143.05739 32872 ft 530 kts 63°
2026-05-08 00:08 35.89158 143.13777 32871 ft 530 kts 63°
2026-05-08 00:08 35.92235 143.21906 32859 ft 517 kts 73°
2026-05-08 00:09 35.93900 143.30399 32852 ft 510 kts 86°
2026-05-08 00:09 35.94357 143.39146 32861 ft 510 kts 88°
2026-05-08 00:10 35.95450 143.47816 32888 ft 516 kts 82°
2026-05-08 00:10 35.96570 143.56648 32889 ft 524 kts 85°
2026-05-08 00:11 35.97432 143.65606 32885 ft 526 kts 86°
2026-05-08 00:11 35.98262 143.74606 32871 ft 528 kts 85°
2026-05-08 00:12 35.99144 143.83583 32876 ft 526 kts 85°
2026-05-08 00:12 36.00044 143.92563 32864 ft 527 kts 85°
2026-05-08 00:13 36.00928 144.01523 32880 ft 523 kts 85°
2026-05-08 00:13 36.02692 144.10147 32875 ft 521 kts 62°
2026-05-08 00:14 36.04746 144.13839 32901 ft 524 kts 47°
2026-05-08 00:14 36.07349 144.16989 32884 ft 522 kts 40°
2026-05-08 00:14 36.12651 144.23042 32883 ft 517 kts 45°
2026-05-08 00:15 36.17546 144.29689 32898 ft 527 kts 48°
2026-05-08 00:15 36.22442 144.36527 32891 ft 532 kts 47°
2026-05-08 00:16 36.27471 144.43273 32911 ft 534 kts 46°
2026-05-08 00:16 36.32547 144.49913 32879 ft 532 kts 46°
2026-05-08 00:17 36.37636 144.56561 32874 ft 530 kts 46°
2026-05-08 00:17 36.42682 144.63201 32876 ft 528 kts 46°
2026-05-08 00:18 36.47696 144.69836 32876 ft 526 kts 46°
2026-05-08 00:18 36.52693 144.76465 32881 ft 525 kts 46°
2026-05-08 00:19 36.57687 144.83099 32879 ft 525 kts 46°
2026-05-08 00:19 36.62681 144.89744 32882 ft 526 kts 46°
2026-05-08 00:20 36.67684 144.96414 32883 ft 527 kts 46°
2026-05-08 00:20 36.72686 145.03096 32889 ft 528 kts 46°
2026-05-08 00:21 36.77693 145.09799 32879 ft 528 kts 47°
2026-05-08 00:21 36.82701 145.16518 32881 ft 529 kts 47°
2026-05-08 00:22 36.87708 145.23251 32882 ft 529 kts 47°
2026-05-08 00:22 36.92713 145.29993 32880 ft 529 kts 47°
2026-05-08 00:23 36.97676 145.36693 32875 ft 529 kts 47°
2026-05-08 00:23 37.02669 145.43447 32874 ft 528 kts 47°
2026-05-08 00:24 37.07646 145.50196 32874 ft 527 kts 47°
2026-05-08 00:24 37.12616 145.56948 32871 ft 527 kts 47°
2026-05-08 00:25 37.17585 145.63712 32874 ft 527 kts 47°
2026-05-08 00:25 37.22650 145.70347 32875 ft 526 kts 44°
2026-05-08 00:26 37.28026 145.76585 32877 ft 526 kts 41°
2026-05-08 00:26 37.33497 145.82700 32873 ft 527 kts 41°
2026-05-08 00:27 37.38926 145.88876 32871 ft 527 kts 42°
2026-05-08 00:27 37.44311 145.95138 32860 ft 527 kts 43°
2026-05-08 00:28 37.49672 146.01433 32868 ft 527 kts 43°
2026-05-08 00:28 37.55038 146.07739 32864 ft 528 kts 43°
2026-05-08 00:29 37.60407 146.14044 32863 ft 528 kts 43°
2026-05-08 00:29 37.65777 146.20355 32881 ft 528 kts 43°
2026-05-08 00:30 37.71155 146.26690 32864 ft 529 kts 43°
2026-05-08 00:30 37.76533 146.33040 32871 ft 530 kts 43°
2026-05-08 00:31 37.81878 146.39366 32868 ft 531 kts 43°
2026-05-08 00:31 37.87269 146.45759 32868 ft 531 kts 43°
2026-05-08 00:32 37.92658 146.52162 32867 ft 532 kts 43°
2026-05-08 00:32 37.98055 146.58588 32876 ft 533 kts 43°
2026-05-08 00:33 38.03465 146.65044 32870 ft 535 kts 43°
2026-05-08 00:33 38.08887 146.71528 32870 ft 536 kts 43°
2026-05-08 00:34 38.14303 146.78018 32866 ft 535 kts 43°
2026-05-08 00:34 38.19714 146.84517 32867 ft 535 kts 43°
2026-05-08 00:35 38.25108 146.91009 32866 ft 534 kts 43°
2026-05-08 00:35 38.30495 146.97507 32865 ft 533 kts 43°
2026-05-08 00:36 38.35873 147.04008 32863 ft 533 kts 43°
2026-05-08 00:36 38.41254 147.10527 32865 ft 534 kts 43°
2026-05-08 00:37 38.46642 147.17068 32860 ft 535 kts 43°
2026-05-08 00:38 38.54749 147.26936 32865 ft 538 kts 43°
2026-05-08 00:38 38.60131 147.33506 32862 ft 540 kts 43°
2026-05-08 00:39 38.65563 147.40151 32860 ft 541 kts 43°
2026-05-08 00:39 38.71001 147.46817 32857 ft 542 kts 43°
2026-05-08 00:40 38.76437 147.53496 32858 ft 542 kts 43°
2026-05-08 00:40 38.81870 147.60187 32846 ft 542 kts 43°
2026-05-08 00:41 38.86390 147.65764 32853 ft 542 kts 43°
2026-05-08 00:41 38.91814 147.72471 32849 ft 542 kts 43°
2026-05-08 00:42 38.97239 147.79193 32848 ft 542 kts 43°
2026-05-08 00:42 39.02661 147.85928 32844 ft 542 kts 43°
2026-05-08 00:43 39.08081 147.92676 32844 ft 542 kts 43°
2026-05-08 00:43 39.13501 147.99440 32842 ft 543 kts 43°
2026-05-08 00:44 39.18930 148.06229 32838 ft 544 kts 43°
2026-05-08 00:44 39.24356 148.13030 32836 ft 545 kts 43°
2026-05-08 00:45 39.29788 148.19852 32835 ft 545 kts 43°
2026-05-08 00:45 39.35221 148.26693 32835 ft 546 kts 43°
2026-05-08 00:46 39.40654 148.33548 32826 ft 546 kts 43°
2026-05-08 00:46 39.46081 148.40413 32830 ft 546 kts 43°
2026-05-08 00:47 39.51504 148.47288 32824 ft 546 kts 43°
2026-05-08 00:47 39.56923 148.54174 32819 ft 545 kts 43°
2026-05-08 00:48 39.62332 148.61063 32820 ft 545 kts 43°
2026-05-08 00:48 39.67740 148.67967 32817 ft 545 kts 43°
2026-05-08 00:49 39.73148 148.74887 32814 ft 546 kts 43°
2026-05-08 00:49 39.78549 148.81815 32816 ft 546 kts 43°
2026-05-08 00:50 39.83959 148.88769 32810 ft 547 kts 43°
2026-05-08 00:50 39.88436 148.94538 32808 ft 548 kts 43°
2026-05-08 00:51 39.93808 149.01473 32801 ft 549 kts 44°
2026-05-08 00:51 39.99231 149.08492 32798 ft 550 kts 44°
2026-05-08 00:52 40.04657 149.15530 32799 ft 550 kts 44°
2026-05-08 00:52 40.10086 149.22591 32797 ft 551 kts 44°
2026-05-08 00:53 40.15511 149.29662 32794 ft 551 kts 44°
2026-05-08 00:53 40.20942 149.36757 32778 ft 552 kts 44°
2026-05-08 00:54 40.26365 149.43860 32788 ft 552 kts 44°
2026-05-08 00:54 40.31784 149.50975 32795 ft 552 kts 44°
2026-05-08 00:55 40.37199 149.58103 32784 ft 552 kts 44°
2026-05-08 00:55 40.42592 149.65273 32784 ft 551 kts 45°
2026-05-08 00:56 40.47475 149.72897 32783 ft 541 kts 53°
2026-05-08 00:56 40.51943 149.80977 32790 ft 552 kts 54°
2026-05-08 00:57 40.56460 149.89213 32776 ft 557 kts 53°
2026-05-08 00:57 40.61091 149.97392 32791 ft 557 kts 52°
2026-05-08 00:58 40.65739 150.05452 32788 ft 556 kts 52°
2026-05-08 00:58 40.70413 150.13558 32798 ft 555 kts 52°
2026-05-08 00:59 40.75061 150.21677 32789 ft 554 kts 53°
2026-05-08 00:59 40.79684 150.29799 32796 ft 553 kts 53°
2026-05-08 01:00 40.84291 150.37921 32795 ft 552 kts 53°
2026-05-08 01:00 40.88893 150.46053 32795 ft 552 kts 53°
2026-05-08 01:01 40.93487 150.54185 32801 ft 553 kts 53°
2026-05-08 01:01 40.98081 150.62339 32811 ft 553 kts 53°
2026-05-08 01:02 41.02683 150.70527 32810 ft 554 kts 53°
2026-05-08 01:02 41.07286 150.78741 32806 ft 555 kts 53°
2026-05-08 01:03 41.11888 150.86975 32802 ft 556 kts 53°
2026-05-08 01:03 41.16483 150.95220 32804 ft 556 kts 53°
2026-05-08 01:04 41.21072 151.03476 32814 ft 556 kts 53°
2026-05-08 01:04 41.25660 151.11752 32811 ft 556 kts 53°
2026-05-08 01:05 41.30244 151.20041 32813 ft 556 kts 53°
2026-05-08 01:05 41.34817 151.28334 32813 ft 556 kts 53°
2026-05-08 01:06 41.39387 151.36644 32816 ft 556 kts 53°
2026-05-08 01:06 41.43955 151.44974 32818 ft 557 kts 53°
2026-05-08 01:07 41.48519 151.53318 32822 ft 557 kts 53°
2026-05-08 01:07 41.53082 151.61684 32819 ft 558 kts 53°
2026-05-08 01:08 41.57646 151.70075 32824 ft 559 kts 53°
2026-05-08 01:08 41.62211 151.78491 32822 ft 560 kts 53°
2026-05-08 01:09 41.66774 151.86926 32825 ft 560 kts 53°
2026-05-08 01:09 41.71341 151.95393 32833 ft 561 kts 53°
2026-05-08 01:10 41.75906 152.03878 32832 ft 562 kts 53°
2026-05-08 01:10 41.80473 152.12391 32838 ft 562 kts 53°
2026-05-08 01:11 41.85003 152.20860 32836 ft 563 kts 53°
2026-05-08 01:11 41.89592 152.29463 32839 ft 563 kts 53°
2026-05-08 01:12 41.94145 152.38021 32846 ft 564 kts 53°
2026-05-08 01:12 41.98666 152.46543 32847 ft 564 kts 53°
2026-05-08 01:13 42.03210 152.55135 32848 ft 564 kts 53°
2026-05-08 01:13 42.07753 152.63748 32849 ft 564 kts 53°
2026-05-08 01:14 42.12293 152.72378 32855 ft 565 kts 53°
2026-05-08 01:14 42.16827 152.81023 32855 ft 565 kts 53°
2026-05-08 01:15 42.21361 152.89693 32863 ft 566 kts 53°
2026-05-08 01:15 42.25892 152.98383 32870 ft 566 kts 53°
2026-05-08 01:16 42.30418 153.07087 32862 ft 567 kts 53°
2026-05-08 01:16 42.34945 153.15819 32867 ft 567 kts 53°
2026-05-08 01:17 42.39459 153.24551 32868 ft 566 kts 53°
2026-05-08 01:17 42.43963 153.33291 32874 ft 566 kts 53°
2026-05-08 01:18 42.48452 153.42026 32872 ft 565 kts 53°
2026-05-08 01:18 42.52931 153.50767 32879 ft 564 kts 53°
2026-05-08 01:19 42.57369 153.59451 32875 ft 564 kts 53°
2026-05-08 01:19 42.61825 153.68197 32878 ft 563 kts 53°
2026-05-08 01:20 42.66274 153.76956 32887 ft 563 kts 53°
2026-05-08 01:20 42.70715 153.85724 32883 ft 563 kts 53°
2026-05-08 01:21 42.75153 153.94510 32891 ft 562 kts 53°
2026-05-08 01:21 42.79571 154.03285 32883 ft 562 kts 53°
2026-05-08 01:22 42.83988 154.12083 32894 ft 561 kts 53°
2026-05-08 01:22 42.88383 154.20864 32882 ft 561 kts 53°
2026-05-08 01:23 42.92765 154.29643 32901 ft 559 kts 53°
2026-05-08 01:23 42.97133 154.38422 32893 ft 558 kts 53°
2026-05-08 01:24 43.01484 154.47192 32898 ft 557 kts 53°
2026-05-08 01:24 43.05800 154.55915 32901 ft 557 kts 53°
2026-05-08 01:25 43.10130 154.64693 32902 ft 557 kts 53°
2026-05-08 01:25 43.14451 154.73480 32907 ft 556 kts 53°
2026-05-08 01:26 43.18764 154.82278 32910 ft 556 kts 53°
2026-05-08 01:26 43.23073 154.91091 32909 ft 557 kts 53°
2026-05-08 01:27 43.27381 154.99930 32918 ft 557 kts 53°
2026-05-08 01:27 43.31682 155.08783 32914 ft 558 kts 53°
2026-05-08 01:28 43.35257 155.16159 32917 ft 558 kts 53°
2026-05-08 01:28 43.39551 155.25045 32919 ft 558 kts 53°
2026-05-08 01:29 43.43845 155.33957 32921 ft 559 kts 53°
2026-05-08 01:29 43.48128 155.42873 32922 ft 559 kts 53°
2026-05-08 01:30 43.52411 155.51819 32927 ft 559 kts 53°
2026-05-08 01:30 43.56687 155.60775 32933 ft 559 kts 53°
2026-05-08 01:31 43.60960 155.69752 32925 ft 560 kts 53°
2026-05-08 01:32 43.69545 155.87872 32920 ft 560 kts 53°
2026-05-08 01:32 43.73790 155.96875 32928 ft 560 kts 53°
2026-05-08 01:33 43.78037 156.05909 32930 ft 559 kts 53°
2026-05-08 01:33 43.82271 156.14942 32934 ft 559 kts 53°
2026-05-08 01:34 43.86471 156.23932 32936 ft 559 kts 53°
2026-05-08 01:34 43.90691 156.32992 32945 ft 560 kts 53°
2026-05-08 01:34 43.92810 156.37549 33052 ft 564 kts 53°
2026-05-08 01:35 43.94933 156.42124 33392 ft 563 kts 53°
2026-05-08 01:35 43.97046 156.46686 33780 ft 561 kts 53°
2026-05-08 01:35 43.99151 156.51242 34127 ft 560 kts 53°
2026-05-08 01:35 44.01251 156.55793 34427 ft 559 kts 53°
2026-05-08 01:36 44.03348 156.60345 34680 ft 559 kts 53°
2026-05-08 01:36 44.05442 156.64896 34867 ft 560 kts 53°
2026-05-08 01:36 44.07542 156.69464 34896 ft 562 kts 53°
2026-05-08 01:37 44.11742 156.78618 34933 ft 560 kts 53°
2026-05-08 01:37 44.15914 156.87747 34943 ft 558 kts 53°
2026-05-08 01:38 44.20070 156.96868 34949 ft 557 kts 53°
2026-05-08 01:38 44.24214 157.05990 34945 ft 557 kts 53°
2026-05-08 01:39 44.28349 157.15120 34949 ft 557 kts 53°
2026-05-08 01:39 44.32485 157.24282 34944 ft 558 kts 53°
2026-05-08 01:40 44.36617 157.33465 34947 ft 559 kts 53°
2026-05-08 01:40 44.40753 157.42688 34949 ft 560 kts 53°
2026-05-08 01:41 44.44886 157.51934 34955 ft 561 kts 53°
2026-05-08 01:41 44.49014 157.61198 34938 ft 561 kts 53°
2026-05-08 01:42 44.53138 157.70486 34945 ft 561 kts 53°
2026-05-08 01:42 44.57255 157.79785 34952 ft 562 kts 53°
2026-05-08 01:43 44.61366 157.89103 34948 ft 561 kts 53°
2026-05-08 01:43 44.65465 157.98423 34947 ft 561 kts 53°
2026-05-08 01:44 44.69559 158.07761 34953 ft 561 kts 53°
2026-05-08 01:44 44.73639 158.17099 34951 ft 561 kts 53°
2026-05-08 01:45 44.77717 158.26462 34954 ft 560 kts 53°
2026-05-08 01:45 44.81778 158.35817 34956 ft 560 kts 53°
2026-05-08 01:46 44.85807 158.45130 34955 ft 560 kts 53°
2026-05-08 01:46 44.89856 158.54516 34951 ft 560 kts 53°
2026-05-08 01:47 44.93895 158.63913 34955 ft 560 kts 53°
2026-05-08 01:47 44.97932 158.73336 34950 ft 560 kts 53°
2026-05-08 01:48 45.03974 158.87498 34960 ft 561 kts 53°
2026-05-08 01:48 45.07992 158.96957 34960 ft 561 kts 53°
2026-05-08 01:49 45.12007 159.06437 34956 ft 562 kts 53°
2026-05-08 01:49 45.16020 159.15948 34955 ft 562 kts 53°
2026-05-08 01:50 45.20022 159.25464 34951 ft 562 kts 53°
2026-05-08 01:50 45.24019 159.34999 34955 ft 562 kts 53°
2026-05-08 01:51 45.27981 159.44483 34952 ft 563 kts 53°
2026-05-08 01:51 45.31965 159.54051 34953 ft 563 kts 53°
2026-05-08 01:52 45.35941 159.63635 34954 ft 563 kts 53°
2026-05-08 01:52 45.39908 159.73229 34950 ft 563 kts 53°
2026-05-08 01:53 45.43873 159.82850 34951 ft 563 kts 53°
2026-05-08 01:53 45.47831 159.92489 34952 ft 564 kts 53°
2026-05-08 01:54 45.51779 160.02138 34950 ft 564 kts 53°
2026-05-08 01:54 45.55728 160.11819 34946 ft 565 kts 53°
2026-05-08 01:55 45.59666 160.21509 34946 ft 565 kts 53°
2026-05-08 01:55 45.63601 160.31225 34945 ft 565 kts 53°
2026-05-08 01:56 45.67536 160.40976 34939 ft 566 kts 53°
2026-05-08 01:56 45.71465 160.50747 34945 ft 566 kts 53°
2026-05-08 01:57 45.75384 160.60525 34942 ft 567 kts 53°
2026-05-08 01:57 45.79297 160.70326 34940 ft 567 kts 53°
2026-05-08 01:58 45.83203 160.80142 34939 ft 567 kts 53°
2026-05-08 01:58 45.87105 160.89984 34944 ft 567 kts 53°
2026-05-08 01:59 45.90998 160.99839 34934 ft 568 kts 53°
2026-05-08 01:59 45.94888 161.09720 34937 ft 568 kts 53°
2026-05-08 02:00 45.98769 161.19613 34933 ft 568 kts 53°
2026-05-08 02:00 46.02645 161.29531 34934 ft 569 kts 53°
2026-05-08 02:01 46.06514 161.39468 34938 ft 569 kts 53°
2026-05-08 02:01 46.10348 161.49347 34937 ft 570 kts 54°
2026-05-08 02:02 46.14207 161.59328 34929 ft 570 kts 54°
2026-05-08 02:02 46.18058 161.69325 34918 ft 570 kts 54°
2026-05-08 02:03 46.21899 161.79336 34923 ft 570 kts 54°
2026-05-08 02:03 46.25737 161.89374 34926 ft 570 kts 54°
2026-05-08 02:04 46.29562 161.99416 34930 ft 570 kts 54°
2026-05-08 02:04 46.33379 162.09472 34928 ft 571 kts 54°
2026-05-08 02:05 46.37193 162.19558 34923 ft 571 kts 54°
2026-05-08 02:05 46.40969 162.29665 34906 ft 567 kts 56°
2026-05-08 02:06 46.43873 162.40350 34936 ft 580 kts 68°
2026-05-08 02:06 46.46114 162.51669 34918 ft 582 kts 68°
2026-05-08 02:07 46.48741 162.62701 34929 ft 579 kts 62°
2026-05-08 02:07 46.51757 162.73607 34931 ft 586 kts 62°
2026-05-08 02:08 46.54640 162.84635 34913 ft 580 kts 64°
2026-05-08 02:08 46.57299 162.95672 34913 ft 579 kts 65°
2026-05-08 02:09 46.59886 163.06744 34922 ft 579 kts 65°
2026-05-08 02:09 46.62484 163.17826 34923 ft 579 kts 65°
2026-05-08 02:10 46.65090 163.28854 34906 ft 580 kts 65°
2026-05-08 02:10 46.67716 163.39976 34911 ft 581 kts 65°
2026-05-08 02:11 46.70328 163.51109 34919 ft 581 kts 65°
2026-05-08 02:11 46.72926 163.62258 34914 ft 581 kts 65°
2026-05-08 02:12 46.75077 163.71542 34913 ft 582 kts 65°
2026-05-08 02:12 46.77656 163.82723 34914 ft 581 kts 65°
2026-05-08 02:13 46.80223 163.93908 34916 ft 581 kts 65°
2026-05-08 02:13 46.82777 164.05093 34909 ft 581 kts 65°
2026-05-08 02:14 46.85318 164.16281 34904 ft 580 kts 65°
2026-05-08 02:14 46.87846 164.27464 34908 ft 580 kts 65°
2026-05-08 02:15 46.90361 164.38652 34902 ft 579 kts 65°
2026-05-08 02:15 46.92865 164.49850 34907 ft 579 kts 65°
2026-05-08 02:16 46.95356 164.61048 34907 ft 579 kts 65°
2026-05-08 02:16 46.97836 164.72259 34905 ft 579 kts 65°
2026-05-08 02:17 47.00306 164.83483 34904 ft 579 kts 66°
2026-05-08 02:17 47.02748 164.94637 34903 ft 579 kts 66°
2026-05-08 02:18 47.05195 165.05877 34900 ft 579 kts 66°
2026-05-08 02:18 47.07631 165.17128 34898 ft 579 kts 66°
2026-05-08 02:19 47.10057 165.28393 34897 ft 579 kts 66°
2026-05-08 02:19 47.12470 165.39660 34894 ft 579 kts 66°
2026-05-08 02:20 47.14873 165.50941 34893 ft 579 kts 66°
2026-05-08 02:20 47.17265 165.62231 34892 ft 579 kts 66°
2026-05-08 02:21 47.19646 165.73534 34891 ft 579 kts 66°
2026-05-08 02:21 47.22016 165.84847 34880 ft 579 kts 66°
2026-05-08 02:22 47.24374 165.96168 34887 ft 579 kts 66°
2026-05-08 02:22 47.26720 166.07494 34890 ft 578 kts 66°
2026-05-08 02:23 47.29055 166.18832 34878 ft 578 kts 66°
2026-05-08 02:23 47.31362 166.30094 34885 ft 578 kts 66°
2026-05-08 02:24 47.33675 166.41448 34886 ft 578 kts 66°
2026-05-08 02:24 47.35978 166.52823 34884 ft 579 kts 66°
2026-05-08 02:25 47.38269 166.64203 34882 ft 579 kts 66°
2026-05-08 02:25 47.40547 166.75585 34879 ft 579 kts 67°
2026-05-08 02:26 47.42820 166.87007 34882 ft 579 kts 67°
2026-05-08 02:26 47.45078 166.98420 34878 ft 579 kts 67°
2026-05-08 02:27 47.47324 167.09839 34874 ft 579 kts 67°
2026-05-08 02:27 47.49554 167.21243 34875 ft 579 kts 67°
2026-05-08 02:28 47.51780 167.32699 34875 ft 579 kts 67°
2026-05-08 02:28 47.53993 167.44155 34873 ft 580 kts 67°
2026-05-08 02:29 47.56198 167.55638 34875 ft 580 kts 67°
2026-05-08 02:29 47.58389 167.67117 34874 ft 580 kts 67°
2026-05-08 02:30 47.60571 167.78616 34870 ft 580 kts 68°
2026-05-08 02:30 47.62742 167.90131 34853 ft 580 kts 68°
2026-05-08 02:31 47.64899 168.01641 34860 ft 579 kts 68°
2026-05-08 02:31 47.67044 168.13160 34866 ft 579 kts 68°
2026-05-08 02:32 47.69178 168.24692 34869 ft 579 kts 68°
2026-05-08 02:32 47.71300 168.36227 34870 ft 579 kts 68°
2026-05-08 02:33 47.73410 168.47770 34872 ft 580 kts 68°
2026-05-08 02:33 47.75511 168.59331 34872 ft 580 kts 68°
2026-05-08 02:34 47.77603 168.70923 34874 ft 580 kts 68°
2026-05-08 02:34 47.79683 168.82520 34870 ft 581 kts 68°
2026-05-08 02:35 47.81751 168.94130 34869 ft 581 kts 68°
2026-05-08 02:35 47.83809 169.05757 34867 ft 581 kts 68°
2026-05-08 02:36 47.85841 169.17313 34869 ft 581 kts 68°
2026-05-08 02:36 47.87876 169.28954 34870 ft 581 kts 68°
2026-05-08 02:37 47.89899 169.40610 34872 ft 581 kts 69°
2026-05-08 02:37 47.91912 169.52279 34872 ft 582 kts 69°
2026-05-08 02:38 47.93915 169.63974 34874 ft 582 kts 69°
2026-05-08 02:38 47.95903 169.75665 34871 ft 582 kts 69°
2026-05-08 02:39 47.97885 169.87385 34874 ft 582 kts 69°
2026-05-08 02:39 47.99292 169.99265 34865 ft 586 kts 84°
2026-05-08 02:40 47.99155 170.05382 34885 ft 596 kts 95°
2026-05-08 02:40 47.98460 170.11510 34882 ft 601 kts 104°
2026-05-08 02:40 47.96189 170.23533 34868 ft 598 kts 106°
2026-05-08 02:41 47.94191 170.35540 34884 ft 599 kts 101°
2026-05-08 02:41 47.92550 170.47783 34893 ft 605 kts 100°
2026-05-08 02:42 47.90820 170.60113 34880 ft 605 kts 102°
2026-05-08 02:42 47.88948 170.72239 34875 ft 598 kts 103°
2026-05-08 02:43 47.87011 170.84270 34890 ft 598 kts 103°
2026-05-08 02:43 47.85065 170.96323 34890 ft 599 kts 103°
2026-05-08 02:44 47.83144 171.08307 34894 ft 600 kts 102°
2026-05-08 02:44 47.81206 171.20381 34897 ft 601 kts 102°
2026-05-08 02:45 47.79250 171.32467 34899 ft 601 kts 102°
2026-05-08 02:45 47.77278 171.44543 34901 ft 601 kts 103°
2026-05-08 02:46 47.75288 171.56629 34903 ft 601 kts 103°
2026-05-08 02:46 47.73288 171.68693 34909 ft 601 kts 103°
2026-05-08 02:47 47.71277 171.80736 34912 ft 601 kts 103°
2026-05-08 02:47 47.69254 171.92775 34917 ft 601 kts 103°
2026-05-08 02:48 47.67218 172.04800 34920 ft 600 kts 103°
2026-05-08 02:48 47.65172 172.16805 34921 ft 600 kts 103°
2026-05-08 02:49 47.63113 172.28800 34923 ft 600 kts 103°
2026-05-08 02:49 47.61043 172.40780 34926 ft 600 kts 103°
2026-05-08 02:50 47.58963 172.52735 34929 ft 599 kts 103°
2026-05-08 02:50 47.56869 172.64686 34932 ft 599 kts 103°
2026-05-08 02:51 47.54765 172.76617 34939 ft 599 kts 103°
2026-05-08 02:51 47.52647 172.88549 34940 ft 599 kts 103°
2026-05-08 02:52 47.50520 173.00451 34944 ft 599 kts 103°
2026-05-08 02:52 47.48377 173.12362 34947 ft 599 kts 103°
2026-05-08 02:53 47.46223 173.24259 34951 ft 599 kts 103°
2026-05-08 02:53 47.44055 173.36154 34952 ft 599 kts 103°
2026-05-08 02:54 47.41877 173.48027 34957 ft 599 kts 103°
2026-05-08 02:54 47.39685 173.59899 34959 ft 599 kts 103°
2026-05-08 02:55 47.36376 173.77681 34964 ft 599 kts 103°
2026-05-08 02:56 47.34157 173.89510 34964 ft 599 kts 103°
2026-05-08 02:56 47.31926 174.01327 34973 ft 598 kts 103°
2026-05-08 02:57 47.29684 174.13126 34973 ft 598 kts 103°
2026-05-08 02:57 47.27445 174.24843 34977 ft 598 kts 103°
2026-05-08 02:58 47.25182 174.36610 34980 ft 597 kts 103°
2026-05-08 02:58 47.22908 174.48359 34985 ft 597 kts 103°
2026-05-08 02:59 47.20623 174.60091 34986 ft 596 kts 103°
2026-05-08 02:59 47.18717 174.69828 34991 ft 596 kts 103°
2026-05-08 03:00 47.16410 174.81547 34991 ft 596 kts 103°
2026-05-08 03:00 47.14095 174.93235 34993 ft 595 kts 103°
2026-05-08 03:01 47.11771 175.04898 34996 ft 595 kts 103°
2026-05-08 03:01 47.09435 175.16551 35003 ft 595 kts 103°
2026-05-08 03:02 47.07087 175.28195 35004 ft 595 kts 104°
2026-05-08 03:02 47.04732 175.39807 35000 ft 594 kts 104°
2026-05-08 03:03 47.02363 175.51415 35003 ft 593 kts 104°
2026-05-08 03:03 46.99989 175.62982 35005 ft 592 kts 104°
2026-05-08 03:04 46.97607 175.74524 35007 ft 592 kts 104°
2026-05-08 03:04 46.95230 175.85972 35008 ft 591 kts 104°
2026-05-08 03:05 46.92832 175.97460 35008 ft 590 kts 104°
2026-05-08 03:05 46.90427 176.08913 35017 ft 589 kts 104°
2026-05-08 03:06 46.88012 176.20355 35017 ft 588 kts 104°
2026-05-08 03:06 46.85588 176.31767 35016 ft 588 kts 104°
2026-05-08 03:07 46.83156 176.43158 35019 ft 587 kts 104°
2026-05-08 03:07 46.80715 176.54528 35025 ft 586 kts 104°
2026-05-08 03:08 46.78267 176.65866 35023 ft 586 kts 104°
2026-05-08 03:08 46.75808 176.77193 35025 ft 585 kts 104°
2026-05-08 03:09 46.73344 176.88483 35026 ft 584 kts 105°
2026-05-08 03:09 46.70869 176.99761 35029 ft 584 kts 105°
2026-05-08 03:10 46.68385 177.11021 35029 ft 583 kts 105°
2026-05-08 03:10 46.65893 177.22255 35030 ft 583 kts 105°
2026-05-08 03:11 46.63392 177.33468 35033 ft 582 kts 105°
2026-05-08 03:11 46.60885 177.44654 35030 ft 581 kts 105°
2026-05-08 03:12 46.58368 177.55821 35034 ft 581 kts 105°
2026-05-08 03:12 46.55843 177.66970 35033 ft 580 kts 105°
2026-05-08 03:13 46.53308 177.78100 35033 ft 580 kts 105°
2026-05-08 03:13 46.50767 177.89203 35038 ft 579 kts 105°
2026-05-08 03:14 46.48233 178.00213 35040 ft 579 kts 105°
2026-05-08 03:14 46.45673 178.11283 35032 ft 578 kts 105°
2026-05-08 03:15 46.43091 178.22392 35050 ft 578 kts 105°
2026-05-08 03:15 46.40517 178.33410 35048 ft 577 kts 106°
2026-05-08 03:16 46.37950 178.44341 35037 ft 576 kts 106°
2026-05-08 03:16 46.35360 178.55316 35039 ft 576 kts 106°
2026-05-08 03:17 46.32766 178.66257 35052 ft 575 kts 106°
2026-05-08 03:17 46.30160 178.77190 35042 ft 574 kts 106°
2026-05-08 03:18 46.27548 178.88094 35043 ft 574 kts 106°
2026-05-08 03:18 46.24929 178.98975 35045 ft 573 kts 106°
2026-05-08 03:19 46.22300 179.09846 35045 ft 573 kts 106°
2026-05-08 03:19 46.19661 179.20700 35048 ft 572 kts 107°
2026-05-08 03:20 46.17018 179.31524 35047 ft 572 kts 107°
2026-05-08 03:20 46.14366 179.42332 35049 ft 571 kts 107°
2026-05-08 03:21 46.11702 179.53133 35044 ft 571 kts 107°
2026-05-08 03:21 46.09035 179.63898 35048 ft 571 kts 107°
2026-05-08 03:22 46.06356 179.74662 35046 ft 570 kts 107°
2026-05-08 03:22 46.03672 179.85394 35044 ft 570 kts 107°
2026-05-08 03:23 46.00978 179.96120 35048 ft 569 kts 107°
2026-05-08 03:23 45.98302 -179.93181 35048 ft 569 kts 107°
2026-05-08 03:24 45.95702 -179.82522 35048 ft 568 kts 106°
2026-05-08 03:24 45.93104 -179.71812 35051 ft 568 kts 106°
2026-05-08 03:25 45.90486 -179.61111 35047 ft 568 kts 107°
2026-05-08 03:25 45.87847 -179.50438 35049 ft 567 kts 107°
2026-05-08 03:26 45.85193 -179.39775 35049 ft 567 kts 107°
2026-05-08 03:26 45.82532 -179.29129 35047 ft 567 kts 107°
2026-05-08 03:27 45.79865 -179.18501 35050 ft 567 kts 107°
2026-05-08 03:27 45.77189 -179.07880 35056 ft 566 kts 107°
2026-05-08 03:28 45.74504 -178.97276 35050 ft 566 kts 107°
2026-05-08 03:28 45.71811 -178.86687 35056 ft 566 kts 107°
2026-05-08 03:29 45.69106 -178.76103 35055 ft 566 kts 107°
2026-05-08 03:29 45.66397 -178.65549 35054 ft 566 kts 107°
2026-05-08 03:30 45.62315 -178.49738 35049 ft 565 kts 107°
2026-05-08 03:31 45.56842 -178.28706 35052 ft 565 kts 108°
2026-05-08 03:32 45.52708 -178.12944 35050 ft 565 kts 108°
2026-05-08 03:32 45.49961 -178.02531 35047 ft 565 kts 108°
2026-05-08 03:33 45.47186 -177.92054 35057 ft 565 kts 108°
2026-05-08 03:33 45.44402 -177.81591 35056 ft 565 kts 108°
2026-05-08 03:34 45.41607 -177.71135 35052 ft 565 kts 108°
2026-05-08 03:34 45.38806 -177.60702 35054 ft 564 kts 108°
2026-05-08 03:35 45.35998 -177.50284 35042 ft 564 kts 108°
2026-05-08 03:35 45.33182 -177.39887 35067 ft 563 kts 108°
2026-05-08 03:36 45.30358 -177.29503 35056 ft 563 kts 108°
2026-05-08 03:36 45.27526 -177.19135 35048 ft 563 kts 108°
2026-05-08 03:37 45.24686 -177.08781 35050 ft 563 kts 108°
2026-05-08 03:37 45.21839 -176.98450 35074 ft 563 kts 108°
2026-05-08 03:38 45.18979 -176.88114 35043 ft 563 kts 109°
2026-05-08 03:38 45.16114 -176.77801 35055 ft 562 kts 109°
2026-05-08 03:39 45.13240 -176.67501 35048 ft 562 kts 109°
2026-05-08 03:39 45.10357 -176.57213 35051 ft 562 kts 109°
2026-05-08 03:40 45.07467 -176.46941 35048 ft 562 kts 109°
2026-05-08 03:40 45.04569 -176.36689 35051 ft 561 kts 109°
2026-05-08 03:41 45.01662 -176.26442 35050 ft 561 kts 109°
2026-05-08 03:41 44.98747 -176.16212 35049 ft 561 kts 109°
2026-05-08 03:42 44.95823 -176.05993 35050 ft 561 kts 109°
2026-05-08 03:42 44.92888 -175.95778 35049 ft 561 kts 109°
2026-05-08 03:43 44.89963 -175.85638 35051 ft 561 kts 109°
2026-05-08 03:43 44.87011 -175.75447 35046 ft 561 kts 109°
2026-05-08 03:44 44.84051 -175.65272 35048 ft 562 kts 109°
2026-05-08 03:44 44.81079 -175.55094 35045 ft 562 kts 110°
2026-05-08 03:45 44.78098 -175.44929 35049 ft 562 kts 110°
2026-05-08 03:45 44.75109 -175.34779 35054 ft 562 kts 110°
2026-05-08 03:46 44.72109 -175.24633 35047 ft 562 kts 110°
2026-05-08 03:46 44.69101 -175.14497 35048 ft 562 kts 110°
2026-05-08 03:47 44.66593 -175.06078 35048 ft 562 kts 110°
2026-05-08 03:47 44.63567 -174.95957 35046 ft 562 kts 110°
2026-05-08 03:48 44.60534 -174.85853 35049 ft 562 kts 110°
2026-05-08 03:48 44.57486 -174.75741 35046 ft 562 kts 110°
2026-05-08 03:49 44.54432 -174.65650 35045 ft 562 kts 110°
2026-05-08 03:49 44.51370 -174.55569 35047 ft 562 kts 110°
2026-05-08 03:50 44.48295 -174.45489 35044 ft 563 kts 110°
2026-05-08 03:50 44.45213 -174.35423 35045 ft 563 kts 111°
2026-05-08 03:51 44.42119 -174.25356 35042 ft 563 kts 111°
2026-05-08 03:51 44.39016 -174.15301 35046 ft 563 kts 111°
2026-05-08 03:52 44.35903 -174.05253 35047 ft 563 kts 111°
2026-05-08 03:52 44.32779 -173.95207 35043 ft 564 kts 111°
2026-05-08 03:53 44.29647 -173.85177 35045 ft 564 kts 111°
2026-05-08 03:53 44.26507 -173.75158 35045 ft 564 kts 111°
2026-05-08 03:54 44.23376 -173.65207 35045 ft 564 kts 111°
2026-05-08 03:54 44.20196 -173.55140 35042 ft 564 kts 111°
2026-05-08 03:55 44.17049 -173.45216 35047 ft 564 kts 111°
2026-05-08 03:55 44.13872 -173.35234 35049 ft 564 kts 111°
2026-05-08 03:56 44.10686 -173.25262 35044 ft 564 kts 112°
2026-05-08 03:56 44.07492 -173.15302 35045 ft 564 kts 112°
2026-05-08 03:57 44.04289 -173.05350 35047 ft 564 kts 112°
2026-05-08 03:57 44.01075 -172.95404 35047 ft 564 kts 112°
2026-05-08 03:58 43.97854 -172.85476 35045 ft 564 kts 112°
2026-05-08 03:58 43.94621 -172.75543 35044 ft 564 kts 112°
2026-05-08 03:59 43.91381 -172.65628 35045 ft 565 kts 112°
2026-05-08 03:59 43.88129 -172.55716 35038 ft 565 kts 112°
2026-05-08 04:00 43.84865 -172.45801 35041 ft 565 kts 112°
2026-05-08 04:00 43.81595 -172.35905 35036 ft 566 kts 112°
2026-05-08 04:01 43.78310 -172.25998 35041 ft 567 kts 112°
2026-05-08 04:01 43.75008 -172.16081 35044 ft 567 kts 113°
2026-05-08 04:02 43.71698 -172.06175 35039 ft 568 kts 113°
2026-05-08 04:02 43.68398 -171.96337 35035 ft 568 kts 113°
2026-05-08 04:03 43.65071 -171.86454 35035 ft 567 kts 113°
2026-05-08 04:03 43.60067 -171.71653 35034 ft 567 kts 113°
2026-05-08 04:04 43.56726 -171.61818 35037 ft 566 kts 114°
2026-05-08 04:04 43.53373 -171.51985 35036 ft 566 kts 114°
2026-05-08 04:05 43.50017 -171.42175 35027 ft 566 kts 114°
2026-05-08 04:05 43.46654 -171.32384 35030 ft 565 kts 114°
2026-05-08 04:06 43.43283 -171.22600 35027 ft 565 kts 114°
2026-05-08 04:06 43.39907 -171.12842 35031 ft 565 kts 114°
2026-05-08 04:07 43.36525 -171.03097 35031 ft 565 kts 114°
2026-05-08 04:07 43.33133 -170.93357 35027 ft 565 kts 114°
2026-05-08 04:08 43.29734 -170.83635 35028 ft 565 kts 115°
2026-05-08 04:08 43.26328 -170.73925 35022 ft 565 kts 115°
2026-05-08 04:09 43.22912 -170.64225 35020 ft 564 kts 115°
2026-05-08 04:09 43.19515 -170.54609 35023 ft 564 kts 115°
2026-05-08 04:10 43.16091 -170.44951 35026 ft 564 kts 115°
2026-05-08 04:10 43.12657 -170.35298 35019 ft 563 kts 115°
2026-05-08 04:11 43.09218 -170.25664 35020 ft 563 kts 116°
2026-05-08 04:11 43.05771 -170.16040 35019 ft 563 kts 116°
2026-05-08 04:12 43.02323 -170.06438 35014 ft 563 kts 115°
2026-05-08 04:12 42.99270 -169.96614 35014 ft 561 kts 108°
2026-05-08 04:13 42.97307 -169.86403 35015 ft 554 kts 98°
2026-05-08 04:13 42.96052 -169.76014 35020 ft 555 kts 96°
2026-05-08 04:14 42.94750 -169.65605 35019 ft 558 kts 98°
2026-05-08 04:14 42.93218 -169.55212 35015 ft 559 kts 99°
2026-05-08 04:15 42.91561 -169.44845 35011 ft 559 kts 100°
2026-05-08 04:15 42.89891 -169.34499 35001 ft 559 kts 100°
2026-05-08 04:16 42.88242 -169.24150 35001 ft 557 kts 100°
2026-05-08 04:16 42.86609 -169.13837 35000 ft 556 kts 100°
2026-05-08 04:17 42.84972 -169.03548 34994 ft 555 kts 100°
2026-05-08 04:17 42.83334 -168.93343 34994 ft 554 kts 101°
2026-05-08 04:18 42.81678 -168.83100 34995 ft 554 kts 101°
2026-05-08 04:18 42.80011 -168.72862 34991 ft 553 kts 101°
2026-05-08 04:19 42.78331 -168.62632 35003 ft 555 kts 100°
2026-05-08 04:19 42.76636 -168.52359 34986 ft 557 kts 100°
2026-05-08 04:20 42.74934 -168.42066 34995 ft 558 kts 100°
2026-05-08 04:20 42.73221 -168.31762 34994 ft 559 kts 100°
2026-05-08 04:21 42.71493 -168.21439 34990 ft 560 kts 101°
2026-05-08 04:21 42.69753 -168.11122 34978 ft 560 kts 101°
2026-05-08 04:22 42.68004 -168.00815 34979 ft 559 kts 101°
2026-05-08 04:22 42.66250 -167.90538 34974 ft 558 kts 101°
2026-05-08 04:23 42.64487 -167.80263 34972 ft 558 kts 101°
2026-05-08 04:23 42.62718 -167.70013 34971 ft 557 kts 101°
2026-05-08 04:24 42.60940 -167.59769 34970 ft 557 kts 101°
2026-05-08 04:24 42.59155 -167.49545 34969 ft 557 kts 101°
2026-05-08 04:25 42.57374 -167.39400 34964 ft 556 kts 102°
2026-05-08 04:25 42.55571 -167.29186 34966 ft 556 kts 102°
2026-05-08 04:26 42.53761 -167.18992 34960 ft 556 kts 102°
2026-05-08 04:26 42.51940 -167.08793 34958 ft 556 kts 102°
2026-05-08 04:27 42.50111 -166.98601 34954 ft 556 kts 102°
2026-05-08 04:27 42.48273 -166.88419 34958 ft 556 kts 102°
2026-05-08 04:28 42.46426 -166.78238 34948 ft 557 kts 102°
2026-05-08 04:28 42.44569 -166.68066 34947 ft 557 kts 102°
2026-05-08 04:29 42.42704 -166.57899 34951 ft 557 kts 103°
2026-05-08 04:29 42.40827 -166.47727 34949 ft 557 kts 103°
2026-05-08 04:30 42.38942 -166.37564 34944 ft 557 kts 103°
2026-05-08 04:30 42.37050 -166.27415 34947 ft 557 kts 103°
2026-05-08 04:31 42.35145 -166.17254 34940 ft 557 kts 103°
2026-05-08 04:31 42.33233 -166.07106 34939 ft 557 kts 103°
2026-05-08 04:32 42.31325 -165.97037 34935 ft 557 kts 103°
2026-05-08 04:32 42.29395 -165.86902 34939 ft 557 kts 104°
2026-05-08 04:33 42.27456 -165.76770 34930 ft 557 kts 104°
2026-05-08 04:33 42.25506 -165.66637 34929 ft 557 kts 104°
2026-05-08 04:34 42.23550 -165.56527 34934 ft 557 kts 104°
2026-05-08 04:34 42.21583 -165.46410 34926 ft 557 kts 104°
2026-05-08 04:35 42.19609 -165.36310 34928 ft 557 kts 104°
2026-05-08 04:35 42.17625 -165.26208 34922 ft 557 kts 104°
2026-05-08 04:36 42.15634 -165.16122 34920 ft 557 kts 104°
2026-05-08 04:36 42.13971 -165.07740 34918 ft 557 kts 104°
2026-05-08 04:37 42.11964 -164.97668 34915 ft 557 kts 105°
2026-05-08 04:37 42.09948 -164.87602 34913 ft 557 kts 105°
2026-05-08 04:38 42.07922 -164.77537 34913 ft 557 kts 105°
2026-05-08 04:38 42.05887 -164.67478 34907 ft 557 kts 105°
2026-05-08 04:39 42.03846 -164.57432 34908 ft 557 kts 105°
2026-05-08 04:39 42.01791 -164.47377 34907 ft 557 kts 105°
2026-05-08 04:40 41.99732 -164.37344 34901 ft 557 kts 105°
2026-05-08 04:40 41.97661 -164.27303 34902 ft 557 kts 105°
2026-05-08 04:41 41.95579 -164.17262 34896 ft 558 kts 106°
2026-05-08 04:41 41.93489 -164.07230 34894 ft 558 kts 106°
2026-05-08 04:42 41.91390 -163.97200 34896 ft 558 kts 106°
2026-05-08 04:42 41.89281 -163.87172 34893 ft 558 kts 106°
2026-05-08 04:43 41.87164 -163.77153 34891 ft 558 kts 106°
2026-05-08 04:43 41.85036 -163.67132 34888 ft 558 kts 107°
2026-05-08 04:44 41.82900 -163.57120 34889 ft 559 kts 107°
2026-05-08 04:44 41.80768 -163.47175 34885 ft 559 kts 107°
2026-05-08 04:45 41.78611 -163.37159 34881 ft 559 kts 107°
2026-05-08 04:45 41.76448 -163.27159 34882 ft 559 kts 107°
2026-05-08 04:46 41.74275 -163.17164 34882 ft 559 kts 107°
2026-05-08 04:46 41.72093 -163.07173 34881 ft 559 kts 107°
2026-05-08 04:47 41.69901 -162.97185 34879 ft 559 kts 107°
2026-05-08 04:47 41.67703 -162.87212 34882 ft 559 kts 107°
2026-05-08 04:48 41.65497 -162.77251 34877 ft 559 kts 108°
2026-05-08 04:48 41.63280 -162.67288 34876 ft 559 kts 108°
2026-05-08 04:49 41.61057 -162.57340 34875 ft 559 kts 108°
2026-05-08 04:49 41.58825 -162.47393 34866 ft 559 kts 108°
2026-05-08 04:50 41.56582 -162.37448 34869 ft 559 kts 108°
2026-05-08 04:50 41.54328 -162.27498 34871 ft 560 kts 108°
2026-05-08 04:51 41.52066 -162.17559 34868 ft 560 kts 108°
2026-05-08 04:51 41.49794 -162.07618 34866 ft 560 kts 109°
2026-05-08 04:52 41.47512 -161.97681 34867 ft 560 kts 109°
2026-05-08 04:52 41.45221 -161.87748 34868 ft 561 kts 109°
2026-05-08 04:53 41.42920 -161.77813 34868 ft 561 kts 109°
2026-05-08 04:53 41.40614 -161.67898 34866 ft 561 kts 109°
2026-05-08 04:54 41.38296 -161.57982 34868 ft 561 kts 109°
2026-05-08 04:54 41.35986 -161.48140 34854 ft 560 kts 109°
2026-05-08 04:55 41.33653 -161.38244 34855 ft 560 kts 109°
2026-05-08 04:55 41.31313 -161.28360 34852 ft 560 kts 110°
2026-05-08 04:56 41.28964 -161.18480 34855 ft 560 kts 110°
2026-05-08 04:56 41.26606 -161.08607 34853 ft 560 kts 110°
2026-05-08 04:57 41.24242 -160.98748 34853 ft 560 kts 110°
2026-05-08 04:57 41.21868 -160.88892 34861 ft 560 kts 110°
2026-05-08 04:58 41.19487 -160.79050 34849 ft 560 kts 110°
2026-05-08 04:58 41.17094 -160.69198 34855 ft 560 kts 110°
2026-05-08 04:59 41.14693 -160.59357 34850 ft 561 kts 110°
2026-05-08 04:59 41.12283 -160.49519 34849 ft 561 kts 111°
2026-05-08 05:00 41.09866 -160.39692 34848 ft 561 kts 111°
2026-05-08 05:00 41.07438 -160.29864 34850 ft 561 kts 111°
2026-05-08 05:01 41.05002 -160.20042 34849 ft 561 kts 111°
2026-05-08 05:01 41.02559 -160.10227 34857 ft 561 kts 111°
2026-05-08 05:02 41.00234 -160.00213 34845 ft 563 kts 107°
2026-05-08 05:02 40.98823 -159.90028 34841 ft 563 kts 96°
2026-05-08 05:03 40.98400 -159.79672 34855 ft 564 kts 92°
2026-05-08 05:03 40.98160 -159.69293 34853 ft 565 kts 93°
2026-05-08 05:04 40.97710 -159.58915 34850 ft 565 kts 95°
2026-05-08 05:04 40.97080 -159.48543 34847 ft 565 kts 96°
2026-05-08 05:05 40.96399 -159.38183 34845 ft 565 kts 96°
2026-05-08 05:05 40.95734 -159.27818 34842 ft 565 kts 96°
2026-05-08 05:06 40.95086 -159.17454 34834 ft 565 kts 96°
2026-05-08 05:06 40.94437 -159.07100 34842 ft 565 kts 96°
2026-05-08 05:07 40.93777 -158.96751 34833 ft 564 kts 96°
2026-05-08 05:07 40.93143 -158.87014 34834 ft 564 kts 97°
2026-05-08 05:08 40.92459 -158.76687 34840 ft 564 kts 97°
2026-05-08 05:08 40.91767 -158.66352 34855 ft 566 kts 97°
2026-05-08 05:09 40.91415 -158.61165 35089 ft 566 kts 97°
2026-05-08 05:09 40.91064 -158.55994 35525 ft 562 kts 97°
2026-05-08 05:09 40.90714 -158.50875 36007 ft 557 kts 97°
2026-05-08 05:09 40.90365 -158.45800 36513 ft 552 kts 97°
2026-05-08 05:10 40.90016 -158.40766 36875 ft 550 kts 97°
2026-05-08 05:10 40.89311 -158.30726 36836 ft 551 kts 97°
2026-05-08 05:11 40.88599 -158.20695 36819 ft 548 kts 97°
2026-05-08 05:11 40.87880 -158.10678 36813 ft 547 kts 97°
2026-05-08 05:12 40.87153 -158.00688 36828 ft 546 kts 98°
2026-05-08 05:12 40.86418 -157.90704 36823 ft 546 kts 98°
2026-05-08 05:13 40.85673 -157.80719 36836 ft 547 kts 98°
2026-05-08 05:13 40.84920 -157.70729 36832 ft 548 kts 98°
2026-05-08 05:14 40.84157 -157.60715 36834 ft 548 kts 98°
2026-05-08 05:14 40.83383 -157.50684 36829 ft 549 kts 98°
2026-05-08 05:15 40.82601 -157.40657 36823 ft 549 kts 98°
2026-05-08 05:15 40.81811 -157.30633 36826 ft 549 kts 98°
2026-05-08 05:16 40.81010 -157.20597 36824 ft 549 kts 99°
2026-05-08 05:16 40.80203 -157.10586 36825 ft 549 kts 99°
2026-05-08 05:17 40.79387 -157.00580 36821 ft 548 kts 99°
2026-05-08 05:17 40.78562 -156.90576 36824 ft 548 kts 99°
2026-05-08 05:18 40.77872 -156.82279 36823 ft 547 kts 99°
2026-05-08 05:18 40.77033 -156.72298 36822 ft 547 kts 99°
2026-05-08 05:19 40.76187 -156.62339 36820 ft 546 kts 99°
2026-05-08 05:19 40.75332 -156.52380 36821 ft 546 kts 100°
2026-05-08 05:20 40.74469 -156.42430 36820 ft 546 kts 100°
2026-05-08 05:20 40.73598 -156.32484 36811 ft 546 kts 100°
2026-05-08 05:21 40.72718 -156.22535 36815 ft 546 kts 100°
2026-05-08 05:21 40.71830 -156.12591 36815 ft 546 kts 100°
2026-05-08 05:22 40.70933 -156.02651 36815 ft 546 kts 100°
2026-05-08 05:22 40.70027 -155.92710 36819 ft 546 kts 101°
2026-05-08 05:23 40.69112 -155.82763 36809 ft 547 kts 101°
2026-05-08 05:23 40.68188 -155.72818 36819 ft 547 kts 101°
2026-05-08 05:24 40.67256 -155.62866 36815 ft 547 kts 101°
2026-05-08 05:24 40.66321 -155.52987 36816 ft 547 kts 101°
2026-05-08 05:25 40.65370 -155.43038 36815 ft 548 kts 101°
2026-05-08 05:25 40.64411 -155.33083 36816 ft 548 kts 101°
2026-05-08 05:26 40.63443 -155.23136 36814 ft 548 kts 101°
2026-05-08 05:26 40.62467 -155.13198 36818 ft 547 kts 101°
2026-05-08 05:27 40.61483 -155.03268 36810 ft 547 kts 101°
2026-05-08 05:27 40.60491 -154.93338 36818 ft 547 kts 102°
2026-05-08 05:28 40.59489 -154.83406 36812 ft 547 kts 102°
2026-05-08 05:28 40.58481 -154.73489 36814 ft 547 kts 102°
2026-05-08 05:29 40.57464 -154.63578 36815 ft 547 kts 102°
2026-05-08 05:29 40.56438 -154.53670 36811 ft 547 kts 102°
2026-05-08 05:30 40.55405 -154.43769 36814 ft 546 kts 102°
2026-05-08 05:30 40.54364 -154.33878 36817 ft 546 kts 102°
2026-05-08 05:31 40.53314 -154.23987 36817 ft 546 kts 102°
2026-05-08 05:31 40.52257 -154.14110 36817 ft 546 kts 102°
2026-05-08 05:32 40.51192 -154.04245 36817 ft 545 kts 102°
2026-05-08 05:32 40.50117 -153.94366 36816 ft 545 kts 102°
2026-05-08 05:33 40.49037 -153.84518 36814 ft 545 kts 102°
2026-05-08 05:33 40.47954 -153.74726 36821 ft 545 kts 102°
2026-05-08 05:34 40.46850 -153.64815 36821 ft 545 kts 102°
2026-05-08 05:34 40.45745 -153.54982 36822 ft 544 kts 102°
2026-05-08 05:35 40.44631 -153.45148 36819 ft 544 kts 103°
2026-05-08 05:35 40.43519 -153.35399 36823 ft 544 kts 103°
2026-05-08 05:36 40.42392 -153.25595 36823 ft 543 kts 103°
2026-05-08 05:36 40.41256 -153.15789 36824 ft 543 kts 103°
2026-05-08 05:37 40.40114 -153.06010 36824 ft 542 kts 103°
2026-05-08 05:37 40.38964 -152.96233 36829 ft 542 kts 103°
2026-05-08 05:38 40.37807 -152.86475 36821 ft 541 kts 103°
2026-05-08 05:38 40.36642 -152.76719 36833 ft 541 kts 103°
2026-05-08 05:39 40.35471 -152.66982 36821 ft 541 kts 103°
2026-05-08 05:39 40.34291 -152.57245 36825 ft 540 kts 103°
2026-05-08 05:40 40.33106 -152.47531 36830 ft 540 kts 103°
2026-05-08 05:40 40.31911 -152.37814 36828 ft 540 kts 103°
2026-05-08 05:41 40.30717 -152.28167 36829 ft 540 kts 104°
2026-05-08 05:41 40.29500 -152.18408 36828 ft 540 kts 104°
2026-05-08 05:42 40.28282 -152.08706 36828 ft 540 kts 104°
2026-05-08 05:42 40.27074 -151.99157 36834 ft 539 kts 104°
2026-05-08 05:43 40.25842 -151.89476 36833 ft 539 kts 104°
2026-05-08 05:43 40.24600 -151.79790 36838 ft 539 kts 104°
2026-05-08 05:44 40.23351 -151.70112 36839 ft 539 kts 104°
2026-05-08 05:44 40.22094 -151.60439 36838 ft 539 kts 104°
2026-05-08 05:45 40.20830 -151.50775 36829 ft 539 kts 104°
2026-05-08 05:45 40.19558 -151.41119 36835 ft 539 kts 104°
2026-05-08 05:46 40.18279 -151.31469 36837 ft 538 kts 104°
2026-05-08 05:46 40.16991 -151.21824 36844 ft 538 kts 105°
2026-05-08 05:47 40.15698 -151.12196 36849 ft 538 kts 105°
2026-05-08 05:47 40.14396 -151.02569 36850 ft 538 kts 105°
2026-05-08 05:48 40.13087 -150.92954 36849 ft 537 kts 105°
2026-05-08 05:48 40.11770 -150.83338 36848 ft 537 kts 105°
2026-05-08 05:49 40.10455 -150.73800 36847 ft 537 kts 105°
2026-05-08 05:49 40.09114 -150.64136 36850 ft 537 kts 105°
2026-05-08 05:50 40.07775 -150.54549 36854 ft 537 kts 105°
2026-05-08 05:50 40.06429 -150.44967 36857 ft 537 kts 105°
2026-05-08 05:51 40.05075 -150.35390 36856 ft 537 kts 105°
2026-05-08 05:51 40.03719 -150.25856 36857 ft 537 kts 105°
2026-05-08 05:52 40.02341 -150.16228 36858 ft 537 kts 105°
2026-05-08 05:52 40.00963 -150.06649 36858 ft 537 kts 106°
2026-05-08 05:53 39.99862 -149.97068 36852 ft 541 kts 99°
2026-05-08 05:53 39.99743 -149.87227 36864 ft 545 kts 91°
2026-05-08 05:54 40.00221 -149.77354 36863 ft 546 kts 89°
2026-05-08 05:54 40.00655 -149.67461 36861 ft 546 kts 91°
2026-05-08 05:55 40.00897 -149.57552 36867 ft 546 kts 92°
2026-05-08 05:55 40.01038 -149.47638 36863 ft 547 kts 92°
2026-05-08 05:56 40.01169 -149.37723 36867 ft 547 kts 92°
2026-05-08 05:56 40.01315 -149.27797 36866 ft 547 kts 92°
2026-05-08 05:57 40.01466 -149.17871 36863 ft 547 kts 92°
2026-05-08 05:57 40.01610 -149.07947 36870 ft 547 kts 92°
2026-05-08 05:58 40.01742 -148.98028 36880 ft 547 kts 92°
2026-05-08 05:58 40.01863 -148.88175 36876 ft 547 kts 93°
2026-05-08 05:59 40.01976 -148.78261 36880 ft 547 kts 93°
2026-05-08 05:59 40.02081 -148.68356 36877 ft 546 kts 93°
2026-05-08 06:00 40.02177 -148.58441 36884 ft 547 kts 93°
2026-05-08 06:00 40.02266 -148.48519 36876 ft 547 kts 93°
2026-05-08 06:01 40.02346 -148.38601 36881 ft 547 kts 93°
2026-05-08 06:01 40.02417 -148.28681 36893 ft 547 kts 93°
2026-05-08 06:02 40.02479 -148.18747 36889 ft 548 kts 93°
2026-05-08 06:02 40.02534 -148.08800 36888 ft 548 kts 93°
2026-05-08 06:03 40.02580 -147.98858 36893 ft 549 kts 94°
2026-05-08 06:03 40.02618 -147.88901 36893 ft 549 kts 94°
2026-05-08 06:04 40.02647 -147.78940 36898 ft 549 kts 94°
2026-05-08 06:04 40.02668 -147.68982 36896 ft 549 kts 94°
2026-05-08 06:05 40.02680 -147.59018 36895 ft 549 kts 94°
2026-05-08 06:05 40.02684 -147.49054 36898 ft 549 kts 94°
2026-05-08 06:06 40.02680 -147.40768 36898 ft 549 kts 94°
2026-05-08 06:06 40.02668 -147.30810 36899 ft 549 kts 94°
2026-05-08 06:07 40.02647 -147.20839 36903 ft 549 kts 94°
2026-05-08 06:07 40.02618 -147.10881 36904 ft 549 kts 94°
2026-05-08 06:08 40.02580 -147.00901 36904 ft 550 kts 94°
2026-05-08 06:08 40.02534 -146.90923 36903 ft 550 kts 94°
2026-05-08 06:09 40.02479 -146.80946 36911 ft 550 kts 94°
2026-05-08 06:09 40.02416 -146.70958 36914 ft 551 kts 94°
2026-05-08 06:10 40.02344 -146.61030 36913 ft 551 kts 94°
2026-05-08 06:10 40.02263 -146.50977 36919 ft 551 kts 94°
2026-05-08 06:11 40.02174 -146.40980 36911 ft 551 kts 95°
2026-05-08 06:11 40.02076 -146.30968 36923 ft 552 kts 95°
2026-05-08 06:12 40.01969 -146.20967 36919 ft 552 kts 95°
2026-05-08 06:12 40.01855 -146.11019 36921 ft 552 kts 95°
2026-05-08 06:13 40.01731 -146.01005 36923 ft 552 kts 95°
2026-05-08 06:13 40.01598 -145.90983 36926 ft 552 kts 95°
2026-05-08 06:14 40.01457 -145.80965 36925 ft 553 kts 95°
2026-05-08 06:14 40.01307 -145.70933 36927 ft 553 kts 95°
2026-05-08 06:15 40.01149 -145.60906 36932 ft 554 kts 95°
2026-05-08 06:15 40.00981 -145.50859 36934 ft 554 kts 95°
2026-05-08 06:16 40.00805 -145.40808 36937 ft 554 kts 95°
2026-05-08 06:16 40.00620 -145.30752 36941 ft 555 kts 95°
2026-05-08 06:17 40.00325 -145.15652 36938 ft 555 kts 95°
2026-05-08 06:17 40.00120 -145.05641 36945 ft 556 kts 95°
2026-05-08 06:18 39.99999 -144.95559 36958 ft 556 kts 93°
2026-05-08 06:18 40.00180 -144.85455 36952 ft 558 kts 91°
2026-05-08 06:19 40.00461 -144.75333 36947 ft 559 kts 91°
2026-05-08 06:19 40.00705 -144.65190 36953 ft 559 kts 92°
2026-05-08 06:20 40.00896 -144.55049 36952 ft 560 kts 92°
2026-05-08 06:20 40.01060 -144.44898 36966 ft 560 kts 92°
2026-05-08 06:21 40.01218 -144.34733 36964 ft 560 kts 92°
2026-05-08 06:21 40.01374 -144.24574 36959 ft 561 kts 92°
2026-05-08 06:22 40.01523 -144.14405 36968 ft 561 kts 92°
2026-05-08 06:22 40.01664 -144.04233 36964 ft 561 kts 92°
2026-05-08 06:23 40.01794 -143.94075 36964 ft 561 kts 92°
2026-05-08 06:23 40.01916 -143.83902 36972 ft 561 kts 92°
2026-05-08 06:24 40.02027 -143.73799 36972 ft 561 kts 92°
2026-05-08 06:24 40.02131 -143.63635 36974 ft 561 kts 92°
2026-05-08 06:25 40.02226 -143.53450 36978 ft 561 kts 92°
2026-05-08 06:25 40.02313 -143.43209 36981 ft 561 kts 92°
2026-05-08 06:26 40.02390 -143.33030 36980 ft 562 kts 93°
2026-05-08 06:26 40.02458 -143.22906 36980 ft 562 kts 93°
2026-05-08 06:27 40.02517 -143.12711 36989 ft 562 kts 93°
2026-05-08 06:27 40.02567 -143.02510 36990 ft 563 kts 93°
2026-05-08 06:28 40.02609 -142.92298 36994 ft 563 kts 93°
2026-05-08 06:28 40.02642 -142.82086 36994 ft 563 kts 93°
2026-05-08 06:29 40.02666 -142.71867 36989 ft 563 kts 93°
2026-05-08 06:29 40.02680 -142.61638 36988 ft 564 kts 93°
2026-05-08 06:30 40.02686 -142.51419 37002 ft 564 kts 93°
2026-05-08 06:30 40.02683 -142.41187 37002 ft 564 kts 93°
2026-05-08 06:31 40.02670 -142.30951 37001 ft 564 kts 93°
2026-05-08 06:31 40.02649 -142.20714 37017 ft 564 kts 94°
2026-05-08 06:32 40.02619 -142.10489 36998 ft 564 kts 94°
2026-05-08 06:32 40.02580 -142.00257 37005 ft 564 kts 94°
2026-05-08 06:33 40.02531 -141.90017 37008 ft 564 kts 94°
2026-05-08 06:33 40.02474 -141.79785 37008 ft 564 kts 94°
2026-05-08 06:34 40.02408 -141.69542 37019 ft 564 kts 94°
2026-05-08 06:34 40.02332 -141.59307 37019 ft 564 kts 94°
2026-05-08 06:35 40.02248 -141.49072 37022 ft 565 kts 94°
2026-05-08 06:35 40.02155 -141.38817 37022 ft 565 kts 94°
2026-05-08 06:36 40.02052 -141.28566 37024 ft 565 kts 94°
2026-05-08 06:36 40.01941 -141.18370 37030 ft 566 kts 94°
2026-05-08 06:37 40.01821 -141.08110 37025 ft 566 kts 94°
2026-05-08 06:37 40.01691 -140.97827 37031 ft 567 kts 94°
2026-05-08 06:38 40.01552 -140.87552 37028 ft 567 kts 94°
2026-05-08 06:38 40.01404 -140.77273 37036 ft 567 kts 94°
2026-05-08 06:39 40.01246 -140.66979 37040 ft 567 kts 94°
2026-05-08 06:39 40.01080 -140.56693 37038 ft 567 kts 95°
2026-05-08 06:40 40.00904 -140.46402 37044 ft 568 kts 95°
2026-05-08 06:40 40.00720 -140.36108 37043 ft 568 kts 95°
2026-05-08 06:41 40.00526 -140.25812 37048 ft 568 kts 95°
2026-05-08 06:41 40.00323 -140.15522 37048 ft 568 kts 95°
2026-05-08 06:42 40.00112 -140.05220 37050 ft 568 kts 95°
2026-05-08 06:42 39.99761 -139.94940 37062 ft 566 kts 98°
2026-05-08 06:43 39.99038 -139.84734 37056 ft 565 kts 100°
2026-05-08 06:43 39.98182 -139.74548 37052 ft 565 kts 100°
2026-05-08 06:44 39.97352 -139.64347 37056 ft 566 kts 100°
2026-05-08 06:44 39.96569 -139.54149 37059 ft 566 kts 99°
2026-05-08 06:45 39.95800 -139.43938 37061 ft 566 kts 99°
2026-05-08 06:45 39.95017 -139.33721 37063 ft 567 kts 99°
2026-05-08 06:46 39.94217 -139.23505 37071 ft 567 kts 100°
2026-05-08 06:46 39.93404 -139.13285 37069 ft 567 kts 100°
2026-05-08 06:47 39.92586 -139.03123 37077 ft 568 kts 100°
2026-05-08 06:47 39.91755 -138.92888 37070 ft 568 kts 100°
2026-05-08 06:48 39.90916 -138.82663 37080 ft 568 kts 100°
2026-05-08 06:48 39.90066 -138.72425 37078 ft 568 kts 100°
2026-05-08 06:49 39.89208 -138.62196 37076 ft 568 kts 100°
2026-05-08 06:49 39.88341 -138.51968 37079 ft 568 kts 100°
2026-05-08 06:50 39.87466 -138.41752 37083 ft 568 kts 100°
2026-05-08 06:50 39.86580 -138.31524 37088 ft 568 kts 101°
2026-05-08 06:51 39.85686 -138.21316 37092 ft 568 kts 101°
2026-05-08 06:51 39.84790 -138.11176 37093 ft 568 kts 101°
2026-05-08 06:52 39.83880 -138.00979 37090 ft 568 kts 101°
2026-05-08 06:52 39.82959 -137.90771 37097 ft 567 kts 101°
2026-05-08 06:53 39.82032 -137.80589 37093 ft 567 kts 101°
2026-05-08 06:53 39.81095 -137.70403 37097 ft 567 kts 101°
2026-05-08 06:54 39.80149 -137.60226 37109 ft 567 kts 101°
2026-05-08 06:54 39.79194 -137.50045 37104 ft 567 kts 101°
2026-05-08 06:55 39.78394 -137.41583 37106 ft 567 kts 101°
2026-05-08 06:55 39.77423 -137.31413 37111 ft 567 kts 101°
2026-05-08 06:56 39.76444 -137.21243 37110 ft 567 kts 101°
2026-05-08 06:56 39.75456 -137.11085 37107 ft 567 kts 101°
2026-05-08 06:57 39.74458 -137.00919 37111 ft 567 kts 101°
2026-05-08 06:57 39.73452 -136.90756 37110 ft 567 kts 102°
2026-05-08 06:58 39.72437 -136.80603 37120 ft 567 kts 102°
2026-05-08 06:58 39.71414 -136.70460 37123 ft 567 kts 102°
2026-05-08 06:59 39.70382 -136.60314 37123 ft 567 kts 102°
2026-05-08 06:59 39.69342 -136.50177 37125 ft 566 kts 102°
2026-05-08 07:00 39.68292 -136.40038 37129 ft 566 kts 102°
2026-05-08 07:00 39.67234 -136.29908 37123 ft 566 kts 102°
2026-05-08 07:01 39.66167 -136.19782 37133 ft 566 kts 102°
2026-05-08 07:01 39.65092 -136.09660 37138 ft 566 kts 102°
2026-05-08 07:02 39.64008 -135.99543 37133 ft 566 kts 102°
2026-05-08 07:02 39.62922 -135.89496 37138 ft 566 kts 102°
2026-05-08 07:03 39.61821 -135.79383 37140 ft 566 kts 102°
2026-05-08 07:03 39.60712 -135.69291 37140 ft 565 kts 102°
2026-05-08 07:04 39.59596 -135.59208 37138 ft 565 kts 102°
2026-05-08 07:04 39.58472 -135.49141 37139 ft 564 kts 102°
2026-05-08 07:05 39.57340 -135.39082 37142 ft 563 kts 102°
2026-05-08 07:05 39.56200 -135.29034 37143 ft 563 kts 103°
2026-05-08 07:06 39.55053 -135.19003 37154 ft 562 kts 103°
2026-05-08 07:06 39.53900 -135.08994 37148 ft 562 kts 103°
2026-05-08 07:07 39.52746 -134.99061 37142 ft 561 kts 103°
2026-05-08 07:07 39.51579 -134.89082 37144 ft 560 kts 103°
2026-05-08 07:08 39.50403 -134.79111 37144 ft 559 kts 103°
2026-05-08 07:08 39.49222 -134.69174 37143 ft 559 kts 103°
2026-05-08 07:09 39.48033 -134.59238 37150 ft 558 kts 103°
2026-05-08 07:09 39.46838 -134.49325 37149 ft 557 kts 103°
2026-05-08 07:10 39.45635 -134.39424 37149 ft 557 kts 103°
2026-05-08 07:10 39.44424 -134.29529 37151 ft 556 kts 103°
2026-05-08 07:11 39.43208 -134.19660 37152 ft 555 kts 103°
2026-05-08 07:11 39.41984 -134.09807 37151 ft 555 kts 103°
2026-05-08 07:12 39.40753 -133.99957 37153 ft 554 kts 103°
2026-05-08 07:12 39.39514 -133.90123 37159 ft 554 kts 103°
2026-05-08 07:13 39.38277 -133.80365 37156 ft 553 kts 103°
2026-05-08 07:13 39.37026 -133.70567 37157 ft 553 kts 103°
2026-05-08 07:14 39.35768 -133.60779 37152 ft 552 kts 103°
2026-05-08 07:14 39.34503 -133.51008 37154 ft 551 kts 103°
2026-05-08 07:15 39.31900 -133.31109 37159 ft 550 kts 103°
2026-05-08 07:16 39.30614 -133.21373 37157 ft 550 kts 103°
2026-05-08 07:16 39.29320 -133.11645 37160 ft 549 kts 103°
2026-05-08 07:17 39.28018 -133.01927 37164 ft 549 kts 103°
2026-05-08 07:17 39.26709 -132.92216 37166 ft 549 kts 103°
2026-05-08 07:18 39.25394 -132.82518 37166 ft 549 kts 103°
2026-05-08 07:18 39.24071 -132.72832 37169 ft 548 kts 103°
2026-05-08 07:19 39.22741 -132.63151 37166 ft 548 kts 103°
2026-05-08 07:19 39.21405 -132.53490 37167 ft 547 kts 103°
2026-05-08 07:20 39.20063 -132.43844 37178 ft 546 kts 103°
2026-05-08 07:20 39.18715 -132.34223 37178 ft 545 kts 103°
2026-05-08 07:21 39.17362 -132.24621 37176 ft 544 kts 103°
2026-05-08 07:21 39.16002 -132.15031 37180 ft 543 kts 103°
2026-05-08 07:22 39.14639 -132.05473 37172 ft 542 kts 104°
2026-05-08 07:22 39.13269 -131.95935 37185 ft 541 kts 104°
2026-05-08 07:23 39.11894 -131.86411 37188 ft 541 kts 104°
2026-05-08 07:23 39.10512 -131.76899 37189 ft 540 kts 104°
2026-05-08 07:24 39.09124 -131.67402 37190 ft 540 kts 104°
2026-05-08 07:24 39.07728 -131.57912 37194 ft 540 kts 104°
2026-05-08 07:25 39.06325 -131.48422 37201 ft 540 kts 104°
2026-05-08 07:26 39.04205 -131.34197 37197 ft 540 kts 104°
2026-05-08 07:26 39.02783 -131.24719 37209 ft 540 kts 104°
2026-05-08 07:27 39.01353 -131.15243 37210 ft 540 kts 104°
2026-05-08 07:27 38.99915 -131.05771 37205 ft 540 kts 104°
2026-05-08 07:28 38.98472 -130.96317 37209 ft 539 kts 104°
2026-05-08 07:28 38.97022 -130.86871 37208 ft 538 kts 104°
2026-05-08 07:29 38.95567 -130.77449 37216 ft 537 kts 104°
2026-05-08 07:29 38.94107 -130.68050 37218 ft 536 kts 104°
2026-05-08 07:30 38.92652 -130.58727 37219 ft 535 kts 104°
2026-05-08 07:30 38.91182 -130.49363 37222 ft 534 kts 104°
2026-05-08 07:31 38.89706 -130.40016 37220 ft 534 kts 104°
2026-05-08 07:31 38.88466 -130.32199 37226 ft 533 kts 104°
2026-05-08 07:32 38.86982 -130.22891 37221 ft 532 kts 104°
2026-05-08 07:32 38.85501 -130.13650 37229 ft 532 kts 104°
2026-05-08 07:33 38.84006 -130.04366 37227 ft 532 kts 104°
2026-05-08 07:33 38.82315 -129.95208 37240 ft 525 kts 109°
2026-05-08 07:34 38.80182 -129.86177 37237 ft 527 kts 109°
2026-05-08 07:34 38.78141 -129.77124 37239 ft 530 kts 108°
2026-05-08 07:35 38.76183 -129.67998 37232 ft 532 kts 108°
2026-05-08 07:35 38.74218 -129.58938 37235 ft 532 kts 108°
2026-05-08 07:36 38.72196 -129.49836 37233 ft 531 kts 108°
2026-05-08 07:36 38.70156 -129.40774 37236 ft 529 kts 108°
2026-05-08 07:37 38.68116 -129.31750 37236 ft 527 kts 108°
2026-05-08 07:37 38.66081 -129.22769 37236 ft 525 kts 108°
2026-05-08 07:38 38.64050 -129.13824 37233 ft 523 kts 108°
2026-05-08 07:38 38.62017 -129.04905 37240 ft 521 kts 108°
2026-05-08 07:39 38.59984 -128.96019 37245 ft 520 kts 108°
2026-05-08 07:39 38.57946 -128.87151 37246 ft 520 kts 108°
2026-05-08 07:40 38.55901 -128.78288 37245 ft 520 kts 108°
2026-05-08 07:40 38.53851 -128.69435 37244 ft 520 kts 108°
2026-05-08 07:41 38.51793 -128.60585 37247 ft 520 kts 108°
2026-05-08 07:41 38.49730 -128.51744 37241 ft 520 kts 108°
2026-05-08 07:42 38.47660 -128.42904 37238 ft 519 kts 108°
2026-05-08 07:42 38.45585 -128.34078 37250 ft 519 kts 108°
2026-05-08 07:43 38.43505 -128.25265 37255 ft 518 kts 108°
2026-05-08 07:43 38.41409 -128.16419 37236 ft 518 kts 108°
2026-05-08 07:44 38.39335 -128.07695 37251 ft 517 kts 108°
2026-05-08 07:44 38.37245 -127.98938 37248 ft 516 kts 108°
2026-05-08 07:45 38.35153 -127.90203 37245 ft 515 kts 108°
2026-05-08 07:45 38.33057 -127.81482 37244 ft 514 kts 108°
2026-05-08 07:46 38.30959 -127.72789 37248 ft 514 kts 108°
2026-05-08 07:46 38.28855 -127.64100 37249 ft 513 kts 108°
2026-05-08 07:47 38.26747 -127.55425 37241 ft 513 kts 108°
2026-05-08 07:47 38.24635 -127.46770 37245 ft 512 kts 107°
2026-05-08 07:48 38.22517 -127.38113 37246 ft 512 kts 107°
2026-05-08 07:48 38.20392 -127.29464 37248 ft 512 kts 107°
2026-05-08 07:49 38.18264 -127.20831 37245 ft 512 kts 107°
2026-05-08 07:49 38.16130 -127.12204 37245 ft 512 kts 107°
2026-05-08 07:50 38.13991 -127.03582 37242 ft 511 kts 107°
2026-05-08 07:50 38.12005 -126.94925 37228 ft 510 kts 104°
2026-05-08 07:51 38.10326 -126.86179 37239 ft 509 kts 102°
2026-05-08 07:51 38.08717 -126.77421 37241 ft 509 kts 103°
2026-05-08 07:52 38.07069 -126.68679 37240 ft 509 kts 103°
2026-05-08 07:52 38.05377 -126.59954 37233 ft 509 kts 103°
2026-05-08 07:53 38.03667 -126.51245 37235 ft 509 kts 103°
2026-05-08 07:53 38.01951 -126.42530 37232 ft 509 kts 103°
2026-05-08 07:54 38.00235 -126.33830 37235 ft 509 kts 103°
2026-05-08 07:54 37.98516 -126.25136 37229 ft 509 kts 103°
2026-05-08 07:55 37.96800 -126.16502 37226 ft 508 kts 103°
2026-05-08 07:55 37.95069 -126.07824 37224 ft 508 kts 103°
2026-05-08 07:56 37.93332 -125.99157 37231 ft 507 kts 103°
2026-05-08 07:56 37.91591 -125.90506 37232 ft 507 kts 103°
2026-05-08 07:57 37.89847 -125.81873 37222 ft 506 kts 103°
2026-05-08 07:57 37.88098 -125.73248 37224 ft 505 kts 103°
2026-05-08 07:58 37.86345 -125.64642 37214 ft 505 kts 103°
2026-05-08 07:58 37.84588 -125.56051 37209 ft 504 kts 103°
2026-05-08 07:59 37.82827 -125.47474 37218 ft 503 kts 103°
2026-05-08 07:59 37.81062 -125.38912 37210 ft 503 kts 103°
2026-05-08 08:00 37.79294 -125.30367 37216 ft 502 kts 103°
2026-05-08 08:00 37.77520 -125.21832 37204 ft 501 kts 103°
2026-05-08 08:01 37.75744 -125.13315 37211 ft 501 kts 103°
2026-05-08 08:01 37.73964 -125.04818 37216 ft 500 kts 103°
2026-05-08 08:02 37.72178 -124.96323 37203 ft 500 kts 103°
2026-05-08 08:02 37.70391 -124.87856 37204 ft 499 kts 103°
2026-05-08 08:03 37.68600 -124.79401 37191 ft 498 kts 103°
2026-05-08 08:03 37.66818 -124.71027 37205 ft 497 kts 103°
2026-05-08 08:04 37.65011 -124.62564 37197 ft 496 kts 103°
2026-05-08 08:04 37.63214 -124.54178 37187 ft 495 kts 103°
2026-05-08 08:05 37.61424 -124.45856 37187 ft 494 kts 102°
2026-05-08 08:05 37.59618 -124.37496 37187 ft 494 kts 102°
2026-05-08 08:06 37.57811 -124.29156 37187 ft 493 kts 102°
2026-05-08 08:06 37.55996 -124.20815 37184 ft 493 kts 102°
2026-05-08 08:07 37.54179 -124.12492 37180 ft 493 kts 102°
2026-05-08 08:07 37.52354 -124.04167 37180 ft 493 kts 102°
2026-05-08 08:08 37.50526 -123.95854 37177 ft 493 kts 102°
2026-05-08 08:08 37.48691 -123.87543 37176 ft 493 kts 102°
2026-05-08 08:09 37.46850 -123.79239 37171 ft 492 kts 102°
2026-05-08 08:09 37.45005 -123.70940 37171 ft 492 kts 102°
2026-05-08 08:10 37.43155 -123.62651 37171 ft 492 kts 102°
2026-05-08 08:10 37.41300 -123.54371 37165 ft 492 kts 102°
2026-05-08 08:11 37.39440 -123.46094 37162 ft 491 kts 102°
2026-05-08 08:11 37.37576 -123.37835 37161 ft 491 kts 102°
2026-05-08 08:12 37.35707 -123.29578 37158 ft 491 kts 102°
2026-05-08 08:12 37.33891 -123.21584 37161 ft 491 kts 102°